GFSNE_sfc_thetae_003.txt.gz
Theta_e
341 344 341 340 345 346 348 347 339 331 330 335 340 347 349 352 354 355 356 348 343 343 342 342 343 345 347 348 349 350 350 351 352 352 352 354 358 361
336 338 340 335 338 340 343 344 345 341 334 336 339 346 352 347 354 354 358 350 343 341 339 339 340 341 343 344 344 344 345 346 346 346 346 347 348 352
339 338 338 341 332 335 341 342 341 344 337 336 338 343 343 351 347 355 356 358 352 340 339 338 337 338 340 340 340 341 342 342 342 342 343 344 345 346
334 333 331 330 334 334 335 340 341 342 339 335 338 340 347 353 353 356 353 352 354 344 339 337 336 335 335 336 336 336 336 336 337 337 338 340 342 343
333 331 330 329 326 324 324 338 340 341 339 338 338 342 343 347 351 355 356 355 355 347 338 337 335 334 333 331 331 330 329 329 330 330 331 332 336 339
333 331 329 327 324 321 321 323 328 335 338 337 340 340 341 345 347 342 345 350 349 350 348 347 342 337 334 330 329 329 325 323 323 323 324 325 328 331
332 332 330 327 325 323 321 321 321 321 322 338 337 339 338 339 338 342 341 351 352 353 351 352 351 350 347 334 341 334 328 324 321 320 319 319 320 322
330 331 332 328 325 324 323 323 322 320 320 320 337 337 340 340 340 338 343 344 342 352 351 348 348 351 352 353 342 337 328 326 324 321 319 317 317 318
332 331 328 329 328 324 320 321 322 323 324 325 322 333 338 342 342 343 347 345 345 348 356 347 351 345 351 349 335 333 328 325 323 321 320 319 317 316
335 334 333 329 328 323 319 317 318 321 324 327 333 331 339 347 347 342 348 348 352 351 350 344 346 345 350 351 332 331 326 324 322 320 319 316 314 312
334 335 334 329 324 319 318 316 318 320 323 322 322 324 330 331 338 348 340 345 342 345 353 351 347 345 345 346 344 329 324 322 320 320 319 316 312 310
333 334 324 324 316 314 317 318 316 318 318 321 327 327 330 338 329 343 348 338 341 338 347 346 344 340 346 349 348 340 338 318 317 317 317 314 309 337
328 328 326 315 309 308 310 318 318 317 319 325 328 335 341 343 344 345 346 345 340 339 341 349 345 344 344 345 350 350 349 335 337 325 311 309 308 318
322 323 328 309 305 308 313 315 314 317 319 319 332 335 338 340 342 346 347 348 347 348 349 354 341 339 341 339 342 345 345 345 344 341 339 315 308 310
324 318 312 308 309 315 315 314 317 319 316 315 315 317 322 338 348 347 347 350 349 348 349 355 347 343 343 339 345 343 341 345 344 343 338 334 333 331
322 323 320 315 310 312 314 317 318 318 319 315 314 317 321 320 329 335 338 341 343 343 350 354 353 349 346 351 350 340 342 339 346 343 340 339 339 340
309 328 320 315 310 310 310 313 314 314 314 318 316 315 316 318 319 324 333 339 339 339 336 345 348 339 331 336 341 343 340 341 339 340 338 337 341 341
315 319 317 314 309 306 309 309 310 311 315 315 316 318 316 315 315 317 321 323 319 319 325 336 335 333 332 329 324 334 335 334 337 336 339 335 335 341
318 317 314 312 310 309 309 309 308 310 312 317 317 316 318 318 315 314 315 315 315 316 317 321 325 327 324 320 327 315 331 334 333 332 336 337 334 340
315 312 310 309 307 305 306 308 308 310 310 308 314 315 318 317 318 314 314 314 315 316 314 315 316 316 315 314 316 320 309 323 329 330 330 331 328 322
309 309 307 306 305 306 306 307 307 307 308 309 311 311 312 317 317 319 317 310 313 315 313 313 316 318 321 321 315 316 322 309 315 320 326 327 327 328
304 301 299 297 296 296 297 302 303 303 306 308 309 309 310 311 314 319 320 319 319 318 316 318 320 320 318 316 314 314 317 322 316 312 310 313 321 317
305 305 302 296 295 294 294 295 298 301 301 304 308 308 308 304 309 311 317 318 315 316 319 319 320 322 320 319 316 317 318 320 320 319 321 310 312 312

GFSNE_sfc_thetae_006.txt.gz
Theta_e
340 339 335 334 335 335 337 334 328 321 323 331 336 342 344 344 344 341 337 345 344 343 342 342 344 346 348 350 351 351 352 352 353 353 353 355 357 360
338 337 338 334 332 333 330 332 331 327 321 329 334 340 341 347 346 345 348 346 344 341 340 339 341 342 344 345 345 346 346 347 347 346 347 348 348 351
338 336 336 334 329 328 327 326 324 323 323 328 334 339 341 341 344 349 350 349 350 339 339 338 337 339 341 341 341 342 343 343 343 343 344 345 345 346
336 335 334 330 329 327 324 322 322 322 322 325 331 335 338 340 340 342 346 347 347 344 337 337 336 335 336 336 336 336 337 338 338 338 340 341 342 342
336 333 333 331 327 325 324 321 321 320 320 320 327 334 337 339 340 343 342 343 345 340 336 335 335 334 333 331 331 330 330 331 331 331 332 333 336 339
336 333 332 330 327 324 322 321 319 317 318 318 320 327 334 336 338 336 339 345 344 349 346 343 338 336 334 330 330 330 326 325 324 325 325 326 328 332
335 333 331 332 329 327 323 322 319 316 316 316 317 320 325 332 333 334 336 339 343 345 344 347 346 344 340 333 337 334 328 325 322 321 321 320 321 323
331 332 331 331 330 328 326 325 322 317 315 315 316 315 318 327 334 334 334 335 333 343 343 343 349 346 347 345 338 336 329 326 323 321 319 318 318 319
332 331 329 330 329 327 326 324 323 321 321 319 317 318 319 323 331 334 333 333 333 340 343 339 346 345 350 348 336 332 330 326 323 322 320 319 317 316
332 331 328 328 329 327 324 322 322 319 320 321 321 321 322 326 327 335 336 335 339 343 345 335 343 343 348 349 335 333 329 325 322 321 320 317 314 313
333 331 330 327 325 320 320 320 317 318 322 321 320 320 321 323 325 331 332 330 331 335 343 338 341 341 343 344 341 331 327 323 320 320 319 316 312 310
330 331 323 321 315 312 316 317 316 317 317 319 319 323 321 321 322 325 331 331 329 332 340 337 340 338 335 341 339 331 327 318 317 317 317 315 310 324
323 324 328 314 308 308 309 318 314 315 318 319 317 319 328 325 324 327 334 338 332 333 340 342 338 339 338 337 342 338 338 325 327 320 312 311 309 322
322 324 326 306 305 307 312 312 313 315 317 317 316 316 317 329 329 336 336 338 342 338 342 343 339 338 337 333 333 342 343 335 335 332 327 314 308 311
324 319 310 306 307 310 310 311 314 315 314 314 315 316 317 321 333 338 340 339 339 342 342 343 343 341 340 336 336 339 338 340 340 338 335 325 322 322
317 318 318 313 309 311 312 313 313 313 315 314 315 318 319 317 319 324 336 337 335 336 340 341 342 343 338 338 336 334 340 338 341 340 335 333 334 333
303 318 323 316 310 309 310 312 311 312 311 315 315 316 317 315 316 318 322 329 332 333 335 337 341 339 331 334 333 334 336 338 341 339 336 333 335 336
311 317 313 312 309 307 307 308 310 311 310 311 314 313 317 316 314 316 317 316 315 318 321 329 334 332 330 325 323 334 335 334 337 336 334 332 334 338
315 311 309 309 307 306 305 307 306 308 311 310 310 311 312 317 316 314 315 314 313 314 315 317 318 326 325 323 322 315 329 333 333 332 333 331 331 334
311 308 306 305 304 304 304 304 305 306 307 310 310 309 311 312 317 316 315 314 313 314 314 315 315 315 315 315 315 317 310 319 323 330 329 327 327 323
306 302 301 298 297 297 297 298 302 300 302 306 307 307 307 308 309 317 317 312 312 314 312 313 316 317 318 317 312 314 317 309 314 316 321 327 325 326
302 299 297 295 295 295 294 295 296 300 301 301 305 306 307 306 307 311 314 312 315 316 315 317 319 318 317 314 312 312 317 319 317 312 312 312 318 315
307 306 304 302 299 299 296 295 296 297 300 301 301 302 303 307 307 307 308 310 307 307 316 316 318 319 317 316 314 314 313 317 319 319 315 311 313 312

GFSNE_sfc_thetae_009.txt.gz
Theta_e
329 329 326 327 324 325 323 322 320 312 313 318 321 329 336 342 345 344 343 342 341 339 339 341 343 346 348 350 350 351 351 353 353 353 353 355 358 361
329 327 327 325 323 322 320 319 318 317 313 318 320 324 330 336 344 344 342 341 339 338 337 337 339 342 344 345 346 347 347 349 349 349 348 349 349 351
328 327 326 324 321 320 319 317 315 315 313 316 319 323 329 332 336 344 343 342 342 339 338 336 336 338 340 341 342 343 344 345 345 345 345 344 345 345
327 325 326 326 321 319 317 316 314 315 315 311 316 319 323 328 334 336 339 343 346 344 339 335 333 334 336 337 337 338 338 339 339 339 340 341 342 342
327 326 324 323 319 319 318 316 315 317 315 313 313 318 321 325 328 335 337 337 341 344 335 335 334 332 332 330 331 331 331 332 332 332 333 335 338 339
328 327 324 323 321 320 318 316 316 313 313 312 313 315 318 321 324 326 330 336 337 342 340 338 336 335 333 330 330 330 327 325 325 326 326 327 330 333
327 326 326 326 330 325 321 319 316 317 313 312 312 314 315 316 317 321 324 332 335 339 338 336 336 340 338 333 335 334 329 326 323 322 322 322 323 325
323 324 324 329 326 328 328 328 325 318 313 313 314 313 315 316 319 318 320 325 326 338 339 337 342 340 341 338 336 333 328 326 324 322 321 320 319 320
323 322 323 327 326 323 323 325 325 325 324 319 315 316 316 318 318 317 318 322 327 333 337 333 338 338 342 344 334 330 327 325 324 322 320 318 317 317
324 323 322 322 322 321 318 316 317 318 319 319 319 318 319 320 319 319 319 321 329 333 336 329 335 337 342 346 334 331 327 324 323 321 319 317 314 313
322 323 322 320 318 316 313 312 314 317 320 320 319 319 320 320 321 319 318 319 320 328 334 333 333 335 338 341 342 331 326 323 321 319 320 317 313 311
320 321 321 316 312 311 311 313 315 314 314 316 317 318 320 321 322 321 318 320 322 324 331 332 332 332 327 336 339 336 329 322 319 317 317 315 310 320
315 316 315 310 307 307 308 313 312 313 315 315 316 317 319 320 321 321 321 319 323 327 331 336 331 330 329 329 333 333 331 324 324 318 313 312 309 324
311 315 311 306 306 307 308 310 311 313 314 314 314 314 316 317 318 322 321 321 326 332 333 337 331 333 328 326 329 335 333 330 330 329 326 316 309 312
313 312 307 305 306 307 310 311 312 312 312 312 312 314 315 319 319 327 324 322 328 335 337 334 334 332 330 327 327 331 334 332 333 331 329 324 322 319
308 305 312 309 308 308 309 311 312 311 311 309 311 314 316 318 317 318 322 330 329 331 335 335 334 333 329 330 329 327 331 333 335 334 331 327 327 327
300 308 311 305 303 303 306 309 309 309 309 309 310 310 312 316 316 318 316 316 319 327 329 330 330 328 325 328 327 328 329 332 337 337 332 329 329 330
303 305 303 302 301 304 304 305 306 306 307 309 309 309 309 312 316 316 316 315 314 315 316 324 327 326 324 320 319 316 327 331 334 338 335 331 330 332
304 302 300 300 301 300 299 301 300 302 303 307 308 307 307 310 313 315 315 314 313 314 315 317 320 328 323 319 318 313 314 331 333 335 335 332 330 333
299 297 295 295 296 296 296 296 298 300 301 301 306 306 307 307 309 313 313 314 313 313 314 316 315 314 316 314 313 316 307 317 320 330 329 328 324 318
296 293 293 291 293 294 294 295 296 297 300 300 301 301 303 307 307 310 309 306 309 314 313 314 316 316 317 317 314 315 318 309 310 315 316 327 326 326
297 294 292 291 291 291 291 294 295 295 297 297 298 299 299 304 305 306 306 305 306 307 315 317 319 317 316 313 312 313 316 320 317 312 312 312 312 319
299 298 296 293 292 291 289 289 290 293 293 294 294 296 297 298 303 303 304 304 303 305 307 314 316 318 316 314 312 313 314 316 316 315 315 311 313 312

GFSNE_sfc_thetae_012.txt.gz
Theta_e
327 327 324 324 321 321 318 317 313 305 306 311 312 318 321 323 328 332 339 342 339 338 337 337 337 341 344 347 348 349 350 351 352 351 351 354 357 360
326 326 324 324 321 320 318 316 314 311 308 311 312 316 318 321 325 329 335 341 341 339 337 336 335 337 340 342 344 344 346 347 348 348 347 348 349 352
326 325 324 323 319 319 318 315 313 313 309 311 312 315 316 317 320 324 329 335 340 337 337 335 334 335 337 338 339 341 343 344 344 344 345 346 346 347
325 324 324 326 320 319 317 315 314 313 313 313 315 314 314 317 319 320 325 331 337 340 336 335 333 332 333 334 335 336 338 339 339 339 341 342 343 343
326 323 323 322 320 318 317 316 315 316 314 315 314 315 315 316 316 319 321 325 333 338 334 334 333 333 331 330 330 329 329 330 330 331 333 335 338 340
325 324 324 322 321 319 318 318 316 313 315 315 314 315 314 315 316 315 316 320 322 330 338 337 337 336 332 328 328 329 325 324 324 325 326 327 330 332
324 324 324 326 328 324 321 319 316 315 317 317 315 315 313 313 313 316 316 318 319 323 328 336 338 338 340 332 333 332 327 324 322 322 322 322 322 324
321 322 322 327 327 328 328 327 324 317 316 316 316 314 314 315 316 315 316 314 312 322 326 332 336 335 336 337 335 331 327 325 323 322 321 319 319 321
319 320 321 324 326 322 323 324 323 323 323 318 315 315 314 316 317 316 315 315 314 318 321 323 335 335 337 338 332 329 326 324 323 322 321 319 318 317
320 320 319 320 320 319 315 313 313 314 315 317 317 317 317 317 317 317 316 317 318 318 320 317 330 333 337 341 333 329 325 323 322 321 319 317 314 313
316 318 318 317 318 317 312 311 310 312 319 319 318 318 318 319 319 318 315 314 312 314 318 320 327 330 333 337 341 329 325 321 320 320 319 316 312 310
316 316 317 314 312 311 309 308 310 313 312 313 314 316 318 318 320 319 319 314 313 312 318 323 327 329 326 333 338 337 329 320 318 316 316 314 309 320
312 311 311 310 307 307 307 306 310 311 312 314 314 315 316 316 317 320 320 320 315 314 326 328 330 329 327 325 330 334 333 322 322 316 310 309 308 319
309 309 307 306 305 306 307 309 311 312 312 311 312 312 313 313 315 319 321 321 321 322 328 332 328 330 329 324 323 328 328 327 327 326 322 312 310 313
308 307 307 304 304 305 308 310 311 310 310 308 308 309 312 314 315 319 321 322 320 321 324 326 331 330 330 326 326 329 327 329 330 330 327 322 320 318
305 303 308 308 307 306 305 307 309 309 307 307 308 310 312 313 313 318 316 319 318 319 322 327 333 331 327 328 327 325 329 329 331 331 330 328 328 326
301 306 304 302 300 300 300 305 307 304 302 305 307 307 308 309 312 316 317 316 314 317 322 330 330 324 320 325 325 324 324 330 333 332 330 327 327 328
301 300 299 299 298 297 296 300 300 300 300 302 305 306 306 307 310 313 314 315 313 315 316 318 323 322 320 318 317 317 326 326 331 333 333 329 328 329
299 297 295 294 293 292 293 296 296 299 300 300 304 303 304 307 308 310 310 310 312 314 315 316 316 324 322 314 316 312 316 325 330 331 333 332 331 332
294 292 291 290 290 290 291 292 295 296 298 298 299 299 300 305 305 305 307 307 309 313 313 314 314 314 319 313 312 313 306 315 316 326 332 330 321 321
292 291 291 290 289 289 289 291 293 293 295 295 295 296 297 301 303 304 305 303 305 308 313 313 315 316 318 318 314 314 316 310 310 312 317 324 324 326
294 293 292 291 290 289 288 287 290 291 291 291 292 293 295 296 299 302 303 303 303 306 310 315 318 316 315 314 312 314 315 316 315 312 311 311 314 322
295 293 293 291 289 286 285 285 287 288 288 288 290 292 293 294 295 297 300 303 303 305 306 308 312 314 314 313 312 313 314 314 314 314 314 312 312 311

GFSNE_sfc_thetae_015.txt.gz
Theta_e
325 325 322 322 320 320 317 315 308 301 303 308 311 314 314 316 320 322 322 327 330 333 337 337 337 339 340 341 344 346 348 350 352 352 352 354 356 358
325 324 323 322 320 319 317 315 312 307 304 309 310 312 314 317 320 320 320 327 328 330 333 335 336 337 338 338 340 342 343 345 346 347 347 347 349 352
323 324 324 323 320 318 317 315 312 311 308 309 311 313 313 314 316 317 320 321 324 328 331 334 335 335 336 336 337 338 340 342 342 344 345 345 346 347
324 323 324 325 321 318 316 315 313 312 310 308 311 314 312 316 316 315 317 321 322 325 327 329 332 333 332 332 332 333 335 336 337 337 341 342 344 344
324 323 323 321 319 318 317 316 315 316 313 314 315 319 318 316 315 316 316 317 320 325 324 325 328 331 331 329 327 327 327 328 330 330 332 335 339 341
324 323 323 321 320 319 318 318 317 315 313 314 316 316 316 317 314 313 313 316 316 320 323 323 325 327 332 329 328 327 324 323 323 324 325 327 330 334
323 323 322 325 329 325 320 319 316 315 314 316 315 315 314 313 311 314 313 314 316 318 318 318 319 322 333 333 335 333 327 324 321 321 321 321 323 325
319 320 320 325 325 328 329 328 323 316 315 315 316 314 313 313 314 312 312 312 310 318 316 316 323 323 331 337 336 331 327 324 323 322 320 319 320 321
317 317 318 322 324 321 323 324 323 324 324 317 313 313 312 314 313 312 313 312 312 316 317 314 317 317 323 336 331 328 325 323 322 321 321 319 318 318
317 317 316 315 317 318 316 313 312 312 313 314 314 315 315 316 314 315 314 314 315 317 318 312 317 316 322 330 331 328 325 322 321 320 319 317 314 313
314 314 316 315 317 320 311 309 309 309 316 318 318 317 317 318 319 317 313 312 310 313 318 315 315 315 320 327 336 329 324 321 319 319 318 316 312 311
313 314 315 313 313 311 307 305 308 308 311 312 312 314 316 316 319 317 315 311 311 310 317 314 314 315 316 330 334 337 331 319 316 316 316 314 310 319
311 309 310 311 307 307 308 304 305 308 311 312 312 311 313 314 314 316 317 315 312 312 319 317 314 315 321 324 331 337 333 322 324 317 310 309 308 320
308 308 307 306 304 306 306 309 310 311 311 310 308 309 310 311 313 315 317 318 322 319 321 321 319 320 323 324 323 329 332 329 328 323 320 311 308 312
307 306 306 303 303 305 307 309 309 308 307 304 306 308 310 310 312 315 317 319 321 322 324 324 325 328 328 326 326 328 328 327 328 326 323 317 315 317
304 301 307 306 305 305 302 302 306 307 303 301 303 307 308 309 309 313 313 315 317 317 321 323 323 325 328 327 328 327 328 325 328 328 327 324 322 323
301 303 302 299 299 297 296 299 303 299 297 299 301 303 304 306 308 311 312 312 313 314 316 322 324 320 319 326 325 326 327 329 330 329 328 325 327 326
301 300 298 296 293 292 292 293 296 299 299 298 299 301 300 302 306 308 310 309 311 313 314 317 320 319 319 317 319 319 326 326 330 330 329 325 325 328
300 295 293 292 291 290 290 290 291 294 297 298 296 297 298 299 304 305 307 307 309 312 315 316 315 317 318 314 314 310 314 325 330 330 330 330 328 330
296 294 289 288 288 288 288 288 290 291 292 292 293 294 295 296 301 302 304 304 306 310 313 315 314 314 315 313 310 311 305 317 320 327 329 330 323 317
293 290 289 288 288 287 287 287 289 289 290 289 291 292 293 294 295 299 302 303 304 307 309 312 315 316 318 318 312 312 314 309 310 316 319 325 324 326
291 291 290 289 288 286 284 285 287 287 287 287 288 289 292 293 293 295 298 300 302 305 306 311 313 314 315 313 311 311 313 315 314 311 311 311 315 322
293 292 291 289 284 283 284 285 285 285 285 286 287 289 291 291 293 294 295 297 299 302 304 304 307 309 308 309 308 309 313 313 314 313 314 312 311 311

GFSNE_sfc_thetae_018.txt.gz
Theta_e
331 330 329 328 328 327 326 323 317 311 310 315 317 322 322 322 324 326 326 325 327 328 328 330 332 335 339 341 342 342 343 345 348 350 351 354 356 358
330 330 329 329 328 326 323 322 319 316 312 315 318 320 322 323 325 326 324 325 324 325 327 328 329 331 335 337 338 338 339 341 342 344 347 348 350 352
330 328 329 329 328 326 324 322 320 318 314 318 317 321 321 323 323 324 323 323 323 325 326 326 326 328 330 333 335 336 337 338 339 341 344 346 346 348
330 329 329 329 328 328 324 324 322 320 317 317 321 319 321 324 323 321 322 322 323 324 324 325 325 325 325 327 330 332 333 333 335 337 339 342 344 345
329 329 329 328 327 326 324 324 323 322 319 318 318 322 322 324 322 323 323 323 323 324 323 323 324 324 324 323 323 326 326 327 328 329 331 334 338 341
330 329 328 328 327 327 325 324 324 322 321 318 318 319 320 324 321 319 318 321 320 321 323 323 324 324 324 323 323 324 323 322 322 323 324 326 330 334
329 329 328 328 328 328 327 327 323 322 321 318 318 318 317 320 318 320 317 318 319 320 319 321 322 323 324 324 327 329 327 323 321 320 320 321 322 325
327 327 326 326 326 326 327 328 327 324 321 320 319 317 318 320 320 318 316 314 312 320 319 318 322 319 322 325 325 326 328 325 322 320 319 319 320 321
326 325 324 325 325 324 323 323 324 324 325 324 318 319 318 319 319 317 316 315 314 317 317 313 318 317 322 323 322 322 324 324 323 321 320 319 318 318
324 323 323 321 322 322 321 321 320 319 319 318 317 318 319 320 319 318 314 314 316 317 318 311 317 315 318 323 322 322 322 323 322 320 320 318 315 313
321 320 320 322 318 318 319 317 315 315 316 316 317 317 316 317 318 316 315 312 309 311 316 313 314 315 317 320 324 322 320 321 319 319 319 317 313 311
319 320 316 316 312 311 314 312 311 313 313 313 315 316 316 317 317 318 315 311 310 309 315 313 313 314 312 318 322 325 332 320 316 316 317 315 310 323
318 316 316 312 308 307 308 312 311 312 312 312 312 312 313 314 316 318 318 313 310 311 317 317 314 314 314 316 325 324 333 336 330 321 311 310 308 322
317 315 314 307 305 306 308 308 309 310 311 310 308 308 309 311 313 314 315 315 317 315 319 321 317 315 314 314 316 335 337 337 334 331 325 313 309 312
313 311 306 303 303 306 306 307 308 309 308 305 304 305 308 310 312 312 315 315 316 317 323 322 318 319 318 316 322 329 328 329 334 330 324 319 317 321
307 308 309 308 306 306 305 304 307 307 305 303 303 305 307 308 307 311 310 311 311 315 321 323 323 321 320 326 330 333 330 326 330 329 327 324 323 325
306 308 308 306 304 302 301 301 302 303 302 302 302 302 303 304 304 309 310 309 309 311 314 318 323 323 320 323 329 335 334 329 331 329 327 325 324 326
306 307 305 302 301 299 298 298 299 299 298 299 300 300 300 300 301 306 308 308 308 310 312 316 317 320 320 319 316 321 333 331 330 330 332 329 327 328
306 303 301 299 297 296 295 295 296 297 297 297 297 297 298 298 300 302 305 306 307 309 312 315 315 314 316 315 316 312 313 329 330 328 331 331 330 329
301 300 297 295 295 294 294 293 295 295 296 295 296 296 297 297 298 300 301 302 304 308 310 312 312 312 311 310 310 312 306 317 323 328 329 332 329 319
297 296 295 295 295 294 292 292 294 294 294 294 295 295 296 296 297 299 299 300 303 307 307 308 310 313 316 316 313 311 314 309 312 321 321 327 327 331
297 297 296 296 295 292 291 292 294 293 293 293 294 294 296 296 297 297 299 300 301 304 306 308 310 310 310 309 308 309 311 315 314 311 310 311 322 326
299 298 297 296 292 291 292 293 292 292 292 292 293 294 295 295 297 297 298 299 300 303 303 304 306 307 306 307 307 307 307 308 311 312 312 311 311 310

GFSNE_sfc_thetae_021.txt.gz
Theta_e
341 341 339 337 337 336 335 333 327 319 319 325 323 331 330 331 332 334 334 332 329 329 328 328 328 330 330 331 335 339 342 343 344 345 349 352 355 358
339 340 340 337 337 337 335 334 331 326 320 324 326 330 333 332 333 334 334 329 330 328 327 327 328 329 329 330 332 334 337 339 340 341 342 345 349 352
341 340 340 341 337 336 337 335 332 330 324 325 328 331 332 332 333 335 334 333 330 329 328 327 326 327 328 328 329 329 332 335 337 338 340 341 343 347
338 339 339 337 339 342 339 338 334 334 328 325 330 330 332 334 334 333 332 331 331 329 327 326 325 325 324 325 325 325 326 328 331 334 336 338 340 343
338 339 338 339 337 339 338 335 333 333 331 325 325 329 330 331 329 331 331 332 331 329 325 324 324 324 324 323 322 321 321 321 323 326 329 332 335 339
339 340 339 337 337 338 337 337 336 333 332 324 325 325 327 330 328 325 324 327 326 328 327 325 325 325 324 323 322 322 320 318 318 320 323 325 329 333
340 340 339 337 334 332 332 333 334 330 327 326 325 325 324 324 323 325 323 324 326 327 324 325 325 325 324 325 326 326 323 321 319 318 319 320 322 326
337 339 339 333 332 329 328 328 330 330 329 327 324 323 323 325 324 323 322 319 317 326 325 322 325 324 325 325 325 324 322 322 321 319 318 318 319 321
339 339 336 333 330 331 327 325 325 325 326 327 323 323 324 325 325 321 320 319 319 323 322 320 323 322 325 326 323 322 321 320 319 320 320 318 317 317
340 339 336 334 331 328 327 327 328 328 329 326 326 325 325 324 323 320 318 319 322 322 325 318 321 317 319 321 322 321 320 319 318 317 319 317 315 314
336 334 331 329 324 318 324 325 325 325 323 318 317 317 317 317 318 316 314 317 316 317 322 317 314 314 316 317 321 321 319 318 316 316 318 317 313 311
327 326 319 324 315 314 323 324 321 322 321 321 321 321 321 322 320 321 318 315 317 313 319 312 312 313 311 318 321 324 325 317 314 315 316 315 311 328
324 326 326 313 310 309 309 322 319 316 317 318 318 318 319 321 321 322 322 319 317 313 317 315 313 313 313 313 319 322 323 325 326 321 311 312 309 324
328 327 324 309 307 307 310 309 309 310 316 316 315 315 315 316 317 318 319 319 321 316 316 315 314 316 315 313 314 320 324 328 329 332 332 319 309 314
325 317 309 304 305 308 308 307 307 315 313 312 312 312 313 314 316 315 318 321 321 318 317 317 318 319 317 315 315 319 321 331 333 334 332 325 321 322
311 318 314 312 307 308 311 312 313 312 309 309 309 310 311 311 309 311 313 314 314 312 316 318 320 321 318 320 318 318 323 328 332 335 331 329 326 328
315 319 317 317 316 316 314 312 311 310 307 307 307 307 307 306 306 310 312 314 311 310 311 315 319 321 320 318 320 326 325 331 332 330 330 327 326 330
313 316 316 316 315 312 310 308 309 306 306 305 305 305 304 304 304 308 311 309 310 312 310 313 314 314 319 316 316 312 322 334 332 330 332 327 326 330
314 315 315 313 311 309 306 305 304 304 305 304 304 304 304 303 304 306 309 305 311 312 312 312 311 310 310 308 316 313 311 324 331 330 332 333 331 332
315 314 311 308 307 306 304 303 302 303 303 303 303 303 303 303 303 304 308 307 308 309 311 313 310 309 309 308 311 315 310 315 319 331 329 335 330 322
310 309 307 306 306 306 303 301 300 301 300 302 302 302 302 302 302 303 307 304 305 304 309 308 309 311 314 316 308 309 313 310 311 311 323 328 330 329
308 306 306 307 307 303 301 300 301 302 302 301 301 302 302 302 301 302 305 305 306 303 304 310 310 309 309 308 306 306 307 312 312 311 310 309 318 326
308 308 307 307 304 302 301 302 303 303 301 301 301 301 302 301 302 302 303 305 303 307 305 307 307 307 305 305 305 305 305 305 308 307 307 309 310 310

GFSNE_sfc_thetae_024.txt.gz
Theta_e
342 343 340 336 336 335 334 332 328 322 323 329 328 335 334 334 336 336 337 337 331 331 330 329 329 329 330 330 331 332 332 336 341 343 344 346 353 357
339 341 342 338 337 337 336 334 333 329 324 328 328 333 336 335 338 338 338 336 334 332 330 329 329 329 329 330 331 331 332 332 334 338 340 341 343 346
342 341 341 344 338 336 336 336 334 332 326 328 330 335 338 339 338 339 338 338 336 333 331 330 328 328 328 328 328 329 329 330 330 332 336 339 340 342
340 341 340 338 341 342 335 338 335 336 330 332 334 332 338 338 338 338 336 335 334 333 331 329 327 326 326 325 325 325 325 326 326 327 330 333 337 339
341 340 340 340 339 337 337 334 333 335 333 330 329 331 332 333 335 336 335 338 332 332 328 327 327 326 324 323 322 321 321 321 321 322 323 325 329 334
342 342 341 340 339 339 338 337 337 334 334 329 328 329 329 332 332 328 327 329 328 330 331 328 328 328 326 323 323 323 320 318 317 317 318 319 322 326
342 342 342 341 338 336 334 337 338 332 329 326 324 326 326 329 330 328 325 326 329 330 327 326 327 328 329 327 328 327 323 320 318 316 316 316 317 319
341 342 342 339 336 331 330 330 331 331 329 326 325 327 329 328 327 325 324 322 320 328 327 324 328 327 328 328 326 325 323 321 320 318 317 316 315 317
343 344 340 337 336 338 332 328 327 326 326 329 327 327 327 328 328 326 324 322 321 324 327 322 327 324 327 328 324 323 321 319 319 318 318 317 316 315
335 334 333 333 339 336 333 333 332 333 333 331 331 330 329 329 326 324 323 322 323 324 329 320 324 323 326 328 324 322 320 318 318 317 317 316 313 312
332 332 332 331 328 323 330 329 330 330 327 322 320 318 318 319 320 321 319 317 318 321 325 321 321 322 325 324 324 321 318 317 316 316 316 315 311 310
330 330 323 322 322 317 327 328 326 327 328 327 326 324 322 325 322 324 320 319 320 318 323 319 319 318 311 316 321 324 324 319 314 313 314 314 310 322
329 326 329 319 312 311 312 326 324 322 322 322 322 320 322 324 323 326 326 321 317 315 320 324 319 313 311 311 316 319 321 322 327 322 310 311 309 316
330 334 331 312 308 309 312 312 310 310 319 320 318 318 319 319 320 320 323 323 321 322 327 327 315 312 311 311 313 320 320 324 323 323 326 319 308 310
330 313 309 308 306 309 310 309 308 317 319 316 315 316 317 317 320 321 323 328 328 327 325 326 320 315 314 313 316 317 317 320 322 326 324 330 325 322
314 323 317 314 312 311 315 313 318 319 316 314 315 315 316 315 313 313 310 312 316 319 325 328 322 317 313 317 318 317 320 318 328 335 334 332 330 328
323 326 322 321 321 320 321 320 318 316 314 314 313 312 312 311 309 310 310 314 316 315 318 321 324 318 317 316 311 312 312 320 327 333 329 329 332 334
316 320 320 321 319 319 318 316 315 311 313 312 311 310 308 307 307 308 311 312 314 315 317 319 316 313 312 317 316 312 312 315 333 335 332 328 327 332
317 319 319 319 318 318 315 313 311 312 313 310 309 308 307 306 306 307 310 312 314 314 310 322 313 309 305 305 315 313 310 312 315 328 331 332 330 330
316 317 317 318 316 314 312 311 310 309 309 308 307 307 306 305 305 305 308 312 311 311 308 311 311 308 305 306 308 311 307 311 311 312 331 339 332 324
315 314 315 314 314 313 311 310 308 307 305 306 306 305 305 305 305 305 307 306 306 312 311 310 309 311 311 312 307 306 309 308 311 310 312 328 332 330
315 312 314 314 313 311 308 306 305 306 306 305 305 305 305 305 304 304 305 307 311 312 311 314 308 308 308 306 304 304 305 308 311 310 310 309 310 327
315 312 314 312 311 307 305 305 305 306 306 305 304 304 305 304 305 305 305 305 308 310 313 304 303 306 304 304 305 304 303 303 304 305 305 307 309 309

GFSNE_sfc_thetae_027.txt.gz
Theta_e
344 345 340 337 336 336 335 332 328 321 323 335 333 342 335 335 339 337 338 340 337 332 331 331 331 331 330 331 332 332 332 332 332 334 337 341 344 347
339 345 343 339 339 336 338 339 339 332 324 331 331 338 340 336 339 339 338 339 336 334 333 331 331 331 331 331 332 332 332 332 332 333 333 335 338 341
344 343 345 347 337 336 339 342 339 336 327 331 333 338 344 344 341 343 340 341 337 335 334 332 330 330 331 330 330 330 330 331 330 331 331 332 333 336
343 345 341 337 345 347 337 343 336 340 330 334 335 333 340 344 343 344 339 334 336 334 334 331 329 328 327 327 327 326 326 327 327 327 328 329 330 331
341 341 340 341 344 340 340 339 333 337 338 332 330 332 335 335 336 341 338 337 337 334 329 329 328 327 326 325 323 322 321 321 322 322 323 324 326 328
342 344 341 341 343 346 343 345 342 335 335 330 331 331 332 337 334 333 329 332 331 331 332 328 330 329 327 325 324 323 319 318 317 317 318 319 321 323
343 342 345 343 339 337 337 340 343 334 329 327 327 327 325 332 329 329 327 329 331 330 330 331 331 330 330 328 329 328 324 321 318 316 316 315 316 318
344 345 345 340 339 333 332 331 332 334 333 327 327 325 330 329 328 326 325 322 319 329 328 325 328 328 331 332 329 326 323 322 320 318 316 315 315 315
344 345 341 341 336 335 332 331 329 328 327 332 330 330 331 333 333 330 329 325 322 324 325 322 327 327 331 330 326 325 322 320 319 318 317 316 316 314
346 345 342 338 336 333 331 331 331 333 337 333 335 333 335 333 329 327 328 326 325 324 328 321 326 326 329 329 326 324 321 320 318 317 316 315 313 312
345 340 339 335 329 326 326 325 327 333 331 326 324 322 321 321 322 322 319 318 317 320 325 324 324 322 325 325 328 324 319 317 316 316 316 315 312 310
344 341 326 332 321 319 328 329 327 330 331 332 330 326 323 326 322 325 324 319 320 318 323 321 319 319 317 323 323 323 323 318 314 313 313 313 311 318
337 335 333 319 315 313 316 330 326 324 328 326 323 323 325 325 323 327 329 324 319 317 321 321 318 320 321 316 317 319 318 321 321 322 313 310 309 314
335 332 331 316 312 311 314 318 313 312 321 320 320 321 319 319 321 323 329 326 323 323 325 325 323 323 319 315 312 316 317 319 322 322 324 319 307 309
330 319 311 309 309 310 311 313 310 318 319 319 319 317 318 319 326 323 327 330 328 326 324 330 326 325 322 315 312 312 314 316 318 321 326 326 325 316
317 324 320 318 316 314 319 315 319 321 320 317 315 316 317 316 315 314 312 312 311 315 328 330 327 326 320 318 312 312 314 311 315 316 321 324 328 325
327 330 326 324 323 323 323 324 320 321 318 317 315 314 313 312 311 311 309 311 311 313 315 321 323 326 321 317 311 313 311 311 313 313 317 325 332 326
323 325 323 323 322 324 322 319 321 318 317 316 314 313 311 310 308 308 309 310 311 315 316 314 318 314 314 314 317 312 310 307 310 312 318 329 331 335
319 321 321 322 323 321 319 318 316 316 318 313 312 311 309 308 307 306 307 308 312 314 316 318 315 310 304 303 311 312 308 307 308 308 311 328 327 330
318 318 318 322 320 318 317 316 315 314 313 312 310 309 308 307 306 306 306 307 309 312 314 316 313 307 305 304 305 309 307 306 305 305 306 312 329 324
317 317 317 316 316 316 315 314 314 311 308 307 308 308 307 306 306 306 306 302 305 311 313 310 307 309 312 311 307 305 307 307 306 305 305 308 314 329
314 314 314 314 314 314 313 311 309 308 308 307 307 306 306 306 305 305 306 305 306 309 312 306 306 310 311 306 303 304 304 305 307 308 307 306 305 307
316 314 314 315 314 313 309 307 306 306 307 306 305 305 306 305 306 306 306 305 305 306 310 309 309 308 307 305 304 303 302 303 303 302 304 306 307 309

GFSNE_sfc_thetae_030.txt.gz
Theta_e
345 346 344 341 341 340 339 334 332 323 324 330 329 336 339 335 341 336 337 341 339 336 333 332 333 333 333 333 334 334 333 333 332 333 333 333 334 337
345 344 344 341 341 341 336 338 334 331 324 330 328 334 341 340 340 338 339 339 338 335 333 332 333 333 333 333 332 332 332 332 333 332 333 333 333 333
343 343 340 344 340 340 341 339 337 334 328 330 335 336 339 339 339 341 341 337 337 336 334 333 332 332 332 332 331 331 331 332 331 331 332 332 332 332
343 344 342 341 342 344 340 340 337 338 332 329 333 334 335 339 341 339 339 335 335 335 334 333 331 330 329 328 328 328 328 328 328 328 329 330 331 331
344 343 342 342 341 339 340 339 337 336 335 331 330 334 332 335 334 336 336 336 336 335 331 329 329 329 327 325 324 323 323 323 323 323 324 325 327 329
344 343 342 342 341 340 339 335 335 335 333 330 329 329 331 333 332 328 327 331 329 332 333 330 330 329 328 325 324 324 321 318 317 318 318 319 321 323
342 343 343 344 341 338 339 339 334 331 328 327 324 324 325 325 323 325 325 327 328 331 326 325 325 326 326 327 329 329 325 321 318 316 315 315 316 318
340 344 345 342 336 333 333 332 332 329 327 325 325 323 324 326 327 326 324 322 318 327 325 321 324 322 323 325 328 327 324 322 320 318 316 315 315 315
342 343 342 341 339 337 331 330 330 330 330 329 323 323 325 327 328 325 324 323 321 323 321 317 322 321 325 327 326 325 322 320 318 318 317 316 315 314
341 343 342 342 339 337 334 333 333 333 331 329 327 327 328 329 328 325 322 320 321 322 324 316 321 321 325 326 326 324 321 318 317 317 316 314 311 310
341 344 343 342 335 326 333 331 331 330 329 326 327 326 324 322 322 322 318 316 315 317 323 320 320 320 319 319 320 323 320 316 316 316 316 315 312 310
342 342 328 336 323 321 330 330 327 328 331 330 330 328 324 324 323 322 321 317 316 316 321 318 313 313 308 315 319 322 322 318 314 312 313 313 312 314
338 339 341 320 316 316 317 330 327 324 326 326 325 322 322 324 324 325 325 322 319 317 319 315 312 312 312 314 319 320 320 318 318 317 313 311 310 311
340 340 337 316 312 312 315 323 314 315 321 320 319 319 319 320 322 322 324 323 321 318 319 319 316 316 315 313 313 317 318 317 317 318 318 315 313 312
329 318 310 310 311 312 313 316 312 319 318 317 318 318 318 321 321 319 322 324 325 322 317 321 320 318 317 315 314 314 313 314 316 315 313 313 314 316
317 318 318 319 319 320 318 314 318 320 320 320 318 318 320 318 316 316 312 311 308 307 315 322 323 318 316 315 314 312 312 310 314 312 311 311 313 314
326 329 321 322 322 320 321 323 321 321 319 318 319 317 315 314 313 313 311 307 306 308 313 316 321 320 317 314 311 311 311 311 309 309 308 307 310 314
322 331 328 327 323 320 322 321 321 319 317 317 318 315 313 312 310 310 309 309 307 309 312 313 316 314 312 312 316 310 310 307 307 307 307 304 306 318
327 325 323 323 322 323 322 319 315 316 318 318 317 315 313 311 309 308 308 307 307 307 310 315 312 307 304 302 309 312 307 305 305 304 304 303 303 311
320 320 321 324 324 323 318 318 318 317 316 315 312 310 310 310 308 307 308 306 305 305 311 311 306 305 305 304 305 309 306 304 303 302 301 303 308 314
320 321 320 319 319 319 318 318 316 314 310 310 309 309 310 307 306 307 306 303 304 307 310 307 307 309 308 311 305 304 307 307 305 304 302 300 302 307
318 317 317 318 318 317 317 315 313 311 311 311 310 309 309 308 305 305 305 305 305 306 307 308 310 310 306 303 303 303 303 305 306 306 305 303 300 298
320 318 318 318 317 316 314 310 308 309 310 308 307 307 308 305 307 306 305 305 304 305 303 307 309 306 303 302 303 303 301 302 302 299 299 303 304 304

GFSNE_sfc_thetae_033.txt.gz
Theta_e
333 334 330 331 330 332 329 324 320 315 316 321 321 329 332 330 331 332 327 338 337 337 333 332 333 334 336 336 335 335 335 335 334 334 333 332 332 333
334 333 332 332 332 330 331 329 325 320 314 322 322 326 330 332 339 330 331 338 338 335 333 332 332 333 334 335 334 333 334 334 334 333 333 333 333 332
336 333 333 332 330 329 331 328 326 325 321 321 324 327 330 329 332 333 334 331 330 335 334 332 331 331 332 333 333 332 332 332 332 332 332 333 333 333
334 332 331 334 329 330 329 328 328 328 324 320 324 325 326 327 329 330 333 335 330 334 334 332 331 330 330 330 329 329 329 329 329 330 330 331 331 332
336 334 332 332 331 331 332 329 329 329 327 324 322 325 326 326 325 328 328 329 332 335 330 330 329 328 327 326 325 324 323 323 323 324 325 326 327 329
338 337 334 333 331 331 329 329 329 327 326 323 322 322 323 323 324 320 319 322 324 330 331 329 328 329 329 326 325 324 321 319 318 318 318 320 322 324
337 339 338 338 339 335 331 329 328 325 322 320 319 318 318 319 318 319 319 320 322 323 322 321 320 319 319 322 327 330 325 321 319 317 316 315 316 317
336 336 335 340 339 337 334 333 329 323 319 319 318 318 319 322 324 320 319 316 314 322 318 318 317 317 319 318 324 325 323 322 320 318 317 315 314 315
337 336 337 337 333 330 330 330 329 329 327 321 319 319 319 321 323 321 320 320 318 320 316 313 316 315 319 322 324 324 322 320 318 318 317 316 315 314
338 336 335 334 333 330 328 325 326 327 326 327 324 324 322 324 323 322 320 316 315 316 316 311 315 314 318 319 324 324 321 319 318 316 315 313 311 309
336 338 338 333 330 328 328 325 324 325 328 326 326 326 325 325 326 317 313 309 309 310 314 314 314 312 311 310 312 320 318 316 316 316 316 314 311 310
333 335 329 331 324 323 326 323 321 322 323 324 324 322 321 320 323 318 318 310 311 309 314 312 311 305 304 305 308 313 317 316 314 313 313 312 309 313
333 334 334 322 318 316 319 323 323 321 320 316 315 315 315 315 317 319 319 316 312 311 317 313 306 305 305 308 312 315 317 318 317 316 311 309 308 310
333 333 330 319 313 313 316 319 316 315 314 313 313 312 311 313 315 316 317 318 318 316 314 311 308 309 308 307 308 312 314 316 316 314 314 313 310 310
331 321 315 312 310 312 315 317 314 311 310 311 310 310 311 313 314 309 309 307 306 306 308 307 313 312 309 307 309 310 310 311 313 313 314 314 310 310
316 313 315 316 315 316 313 312 311 311 311 311 311 310 310 307 306 306 303 302 299 300 304 308 314 312 309 309 309 309 309 307 311 313 309 308 309 310
317 316 313 312 311 311 312 311 313 313 313 314 313 308 305 305 304 303 301 299 297 299 300 308 310 312 312 311 310 308 308 308 310 308 306 304 306 308
316 318 313 314 314 314 314 314 317 318 315 315 311 306 304 304 301 302 300 298 298 298 300 302 307 305 306 308 315 306 308 308 307 306 305 303 302 304
315 316 316 315 315 315 316 317 313 313 313 310 305 305 304 301 302 299 298 299 298 297 297 305 302 301 299 301 306 311 308 307 305 303 303 302 300 302
310 310 310 311 313 312 310 308 306 306 304 300 299 299 299 300 298 298 298 296 296 297 297 302 300 299 301 304 305 308 306 305 303 301 300 301 302 305
308 308 306 307 307 307 307 305 304 301 299 298 297 299 300 297 296 297 297 300 300 296 299 301 301 308 304 304 301 302 305 306 305 301 299 297 297 299
305 306 306 305 306 305 303 302 301 300 299 300 299 299 297 296 296 297 296 296 296 296 296 300 303 302 299 297 297 299 301 302 305 305 303 301 297 294
307 306 306 305 305 304 302 299 297 298 298 297 296 296 297 297 298 296 297 298 296 296 295 298 301 299 298 297 298 297 298 299 300 298 298 301 302 301

GFSNE_sfc_thetae_036.txt.gz
Theta_e
329 327 328 326 328 327 326 321 316 312 312 318 319 325 327 328 330 334 327 333 336 335 333 333 333 334 336 337 337 336 336 336 336 335 335 333 332 332
332 330 328 328 327 327 328 325 321 317 313 318 320 323 328 329 331 332 328 333 335 335 333 332 332 333 334 335 335 335 335 334 334 334 334 334 334 333
333 331 329 329 328 326 328 326 324 321 317 319 322 324 327 328 329 332 330 329 329 333 334 333 331 332 332 333 333 333 334 333 333 333 333 333 334 334
331 331 330 333 327 325 326 325 324 324 321 319 320 322 324 325 325 326 328 334 330 332 332 332 330 330 329 329 328 328 329 330 330 330 331 332 333 333
333 331 330 328 326 325 326 325 326 327 324 321 320 322 323 324 323 325 326 324 327 333 330 329 328 327 326 324 324 323 322 322 323 324 325 326 328 331
334 334 333 332 328 329 330 327 326 325 323 322 321 320 320 322 322 319 319 320 320 327 330 328 327 327 325 324 324 324 321 318 317 317 318 319 321 324
334 336 337 336 335 332 332 328 326 324 323 320 318 316 316 317 316 319 320 321 322 322 320 319 318 317 319 321 324 326 323 321 318 317 316 315 315 317
333 333 337 338 336 334 334 332 331 326 322 319 319 315 316 317 319 319 319 318 316 322 319 316 317 316 318 317 323 323 322 321 319 318 318 316 315 315
334 332 334 337 336 336 332 330 329 328 326 321 318 318 317 318 318 316 317 316 315 320 314 310 313 312 316 319 322 322 321 320 319 317 317 316 315 314
335 333 335 335 332 332 330 329 328 327 327 327 323 323 321 322 320 320 319 316 314 314 314 309 312 312 316 316 322 323 320 317 317 316 315 314 311 310
334 335 336 332 328 326 328 327 326 325 327 324 324 324 324 324 324 320 319 310 309 309 311 311 312 311 311 311 311 317 316 314 314 315 315 314 311 310
330 334 328 332 322 322 331 328 326 326 323 324 324 321 322 322 323 319 316 310 309 307 312 311 309 307 304 303 304 307 310 313 312 312 312 312 309 313
331 331 333 320 317 316 320 328 325 321 323 317 315 314 314 313 314 314 315 314 309 309 314 312 307 304 302 303 307 311 312 313 313 314 311 309 308 309
330 332 332 317 313 312 315 319 317 318 316 313 310 310 309 310 310 311 310 313 319 313 314 309 306 305 304 303 304 308 310 310 310 311 311 310 309 309
334 325 314 309 309 313 313 315 315 314 311 308 307 307 309 309 308 306 306 304 303 303 305 301 306 306 307 305 305 306 308 308 309 307 310 310 310 309
318 319 317 317 313 315 315 315 314 312 309 307 307 309 309 305 303 304 301 300 297 297 301 303 306 309 306 307 306 307 308 303 307 309 308 307 307 308
319 317 315 311 311 311 311 312 309 309 309 309 309 309 305 303 303 301 299 297 295 295 298 300 304 308 308 307 305 306 305 305 307 307 306 304 305 306
317 315 311 311 311 310 309 309 309 312 309 309 309 306 302 302 300 299 298 295 294 296 295 296 302 302 302 303 311 304 304 304 306 305 305 302 300 303
315 314 315 313 312 312 311 310 311 312 310 307 303 303 302 299 298 297 295 295 295 294 294 297 300 298 296 297 302 309 304 305 303 302 303 300 299 299
310 310 309 309 309 309 308 305 305 302 299 298 300 298 297 297 296 294 294 294 293 294 294 300 298 297 297 297 300 304 305 302 301 300 299 300 300 303
306 304 305 305 305 304 303 302 302 300 298 297 295 296 297 295 293 294 295 297 297 294 294 294 298 306 301 299 296 296 301 304 304 301 300 296 295 296
304 303 303 303 303 303 301 300 299 298 296 296 297 296 295 293 294 295 294 293 294 294 294 294 299 298 296 294 293 295 298 300 303 304 304 301 295 292
304 304 303 303 302 301 299 297 296 295 296 295 294 293 294 294 295 294 294 295 294 293 293 293 297 297 294 294 295 294 295 296 298 298 298 302 300 299

GFSNE_sfc_thetae_039.txt.gz
Theta_e
328 326 326 324 327 325 323 318 316 311 311 316 317 322 326 324 329 332 332 332 336 335 333 333 333 334 336 337 338 337 337 338 337 336 336 335 333 332
328 326 326 326 326 326 323 321 318 315 311 316 319 321 326 327 328 331 331 335 333 333 333 332 333 334 334 335 335 335 336 336 336 335 335 335 335 334
330 328 328 326 326 325 326 322 321 317 315 318 319 322 324 325 327 327 331 327 326 332 333 333 332 332 333 333 333 333 334 335 334 334 335 335 335 335
329 329 329 330 326 325 325 323 322 322 320 317 318 321 323 324 324 324 326 330 329 333 331 331 330 329 329 328 327 327 327 329 329 330 331 332 333 334
330 330 329 328 326 325 324 324 324 325 322 320 320 321 322 322 322 322 324 322 325 331 328 328 328 326 325 324 322 322 321 321 321 322 324 326 328 330
333 332 330 329 327 328 326 327 326 326 322 321 319 320 320 320 320 319 318 319 320 326 329 327 328 326 326 323 323 323 319 317 316 316 317 318 320 324
333 333 332 333 335 332 330 329 327 326 325 321 319 317 317 316 315 317 316 318 319 321 321 322 321 320 319 321 322 324 322 319 317 316 315 315 315 316
333 333 334 337 335 332 332 332 331 326 325 321 318 318 320 318 317 317 316 314 312 318 316 316 317 315 316 315 321 323 321 320 319 317 316 315 315 315
333 332 332 336 334 333 331 330 330 329 328 323 321 319 320 320 319 315 315 314 313 318 316 313 312 312 316 316 321 322 320 319 318 316 315 315 314 313
337 335 332 331 331 332 332 329 329 327 326 325 324 324 323 324 320 319 317 316 316 317 313 308 313 311 314 314 321 321 320 318 316 314 314 312 310 309
336 334 333 331 328 326 328 326 325 325 327 325 324 323 323 324 324 320 319 315 309 310 313 311 311 310 311 312 315 318 316 314 312 312 313 312 309 308
331 331 327 331 321 321 328 327 326 326 327 326 326 321 321 320 323 321 316 310 307 306 310 309 307 306 304 305 303 305 305 310 310 310 311 311 308 310
331 329 331 321 315 314 321 330 328 326 324 323 318 314 313 312 311 311 313 312 308 309 313 311 306 304 301 301 304 308 308 310 311 311 309 308 307 308
329 330 330 315 312 311 315 320 317 320 319 315 312 310 308 308 310 308 308 313 316 312 312 310 306 303 299 300 302 306 308 309 308 308 308 308 307 308
331 326 315 308 307 310 314 315 316 317 313 310 308 306 307 309 307 304 305 302 301 301 304 301 303 301 302 302 303 304 305 306 307 306 305 308 308 308
319 320 318 317 314 316 315 316 318 314 311 308 306 306 307 306 302 302 300 298 296 297 299 299 300 301 303 304 303 305 306 302 305 307 307 307 307 306
318 320 317 315 313 312 311 314 311 311 309 307 306 307 306 302 301 300 298 296 294 293 295 297 298 303 305 305 301 302 302 302 305 305 304 302 303 305
320 318 316 311 311 310 309 308 308 311 307 307 307 307 305 301 300 298 296 294 292 293 293 293 297 300 299 301 308 301 301 300 304 304 302 300 300 303
315 313 312 310 310 310 309 308 309 309 309 308 307 304 301 300 297 296 294 293 293 292 293 293 298 296 294 294 299 308 300 302 301 300 300 300 298 300
312 313 312 313 312 310 309 308 307 305 303 301 298 297 296 296 295 293 292 292 291 292 293 294 295 295 295 295 296 299 304 298 299 298 299 301 301 303
306 306 306 307 307 306 303 303 301 299 298 296 295 296 296 294 292 292 293 296 295 292 292 292 294 304 298 296 294 293 296 303 302 298 299 297 295 295
304 304 304 304 303 302 301 300 298 297 296 295 295 295 293 293 293 293 292 292 292 292 292 293 294 296 294 293 292 292 294 296 301 303 304 302 295 291
304 304 303 302 301 300 299 298 296 295 294 295 294 292 292 293 293 293 293 293 292 291 291 292 292 295 293 292 294 292 292 294 296 295 298 303 302 300

GFSNE_sfc_thetae_042.txt.gz
Theta_e
334 333 332 331 332 330 327 327 326 320 321 325 327 331 334 332 333 337 339 337 335 335 333 333 334 334 336 337 337 337 338 339 339 338 338 338 336 335
333 333 332 331 332 332 330 327 325 325 322 324 328 330 334 333 333 337 337 336 335 333 332 332 333 334 335 335 335 335 336 336 337 337 337 337 336 337
334 332 332 333 331 331 332 329 327 325 324 326 326 331 333 335 336 337 336 338 337 332 332 331 331 332 333 333 333 333 333 334 334 334 335 336 336 336
334 334 332 332 332 332 331 331 330 328 327 328 328 329 331 333 334 334 333 333 336 334 332 330 330 329 328 328 327 327 326 327 328 328 330 332 333 334
335 334 333 333 332 331 330 331 329 329 330 327 328 329 330 330 330 331 332 332 330 331 328 328 327 327 325 324 322 321 320 320 320 321 322 323 326 329
336 335 334 333 333 332 332 332 332 331 330 329 328 328 328 329 327 326 326 327 327 330 332 329 328 327 326 323 323 323 319 317 316 316 317 318 320 322
338 337 336 336 335 334 334 333 332 331 330 327 325 324 322 323 324 326 323 324 328 329 329 329 329 329 329 326 325 325 322 319 317 316 315 315 315 316
337 336 338 337 336 332 332 331 334 333 331 330 327 328 328 326 325 321 324 323 321 328 326 324 328 327 329 327 324 322 321 320 318 317 316 315 314 315
339 335 335 338 336 338 331 330 330 329 332 333 328 328 328 329 326 320 322 323 322 326 326 323 326 324 327 324 321 321 320 319 318 317 316 313 313 313
339 336 338 336 336 337 337 336 335 335 334 333 331 328 329 328 329 326 326 325 323 325 325 318 323 321 324 324 321 321 319 318 317 316 313 311 309 308
338 338 337 336 330 327 335 335 334 332 327 325 326 325 325 325 328 327 323 321 317 319 320 320 320 319 321 320 322 319 316 313 311 311 311 311 308 307
339 337 329 336 322 321 335 334 332 328 329 329 330 326 325 328 324 327 326 320 318 316 320 318 317 317 310 317 315 317 318 313 309 310 311 310 307 318
336 334 335 321 316 314 322 335 331 331 329 331 330 328 324 323 321 320 324 321 318 316 321 320 317 315 312 310 313 316 319 319 319 317 311 307 306 309
334 334 332 314 310 310 318 322 318 323 327 326 324 322 321 318 319 318 319 320 321 321 321 321 315 312 311 308 306 315 317 318 317 316 317 312 308 308
332 328 316 308 307 310 314 315 317 325 324 322 321 319 316 318 318 316 315 314 313 312 311 313 312 311 310 309 308 311 312 313 315 315 314 313 312 312
321 322 319 317 316 319 317 318 325 325 323 321 318 316 316 316 315 313 312 309 308 308 311 310 309 310 308 310 311 311 312 310 311 311 310 310 311 311
323 323 321 320 319 320 320 321 321 321 319 317 315 315 316 314 312 310 309 307 306 304 305 307 309 310 311 313 310 310 310 309 309 309 308 306 307 308
325 324 322 321 320 318 317 315 317 318 319 317 316 316 316 315 312 308 306 305 303 304 303 304 305 309 309 311 312 310 310 308 307 307 306 303 304 306
325 324 322 318 317 316 317 318 318 319 318 316 316 316 315 311 308 306 304 303 303 303 304 304 307 306 303 301 308 310 310 305 304 302 304 303 302 303
325 321 319 317 317 317 317 317 317 316 316 316 315 314 310 307 305 304 302 303 302 303 303 304 304 304 304 305 305 307 304 306 302 301 302 304 304 305
319 319 319 318 318 319 318 317 316 314 312 310 307 305 305 305 303 302 302 299 300 302 302 303 304 302 307 307 303 304 305 303 303 302 302 300 298 297
316 315 314 315 315 314 313 311 308 306 305 305 305 305 304 303 302 302 302 303 303 303 301 302 304 307 306 304 303 301 299 300 303 304 304 303 298 292
311 312 312 312 311 310 308 307 307 306 305 305 304 303 302 302 303 303 303 302 302 302 301 302 303 305 304 303 300 298 297 297 298 299 301 304 303 301

GFSNE_sfc_thetae_045.txt.gz
Theta_e
346 346 342 341 341 340 338 337 332 325 327 334 334 342 345 344 342 342 343 341 337 336 335 335 335 336 337 338 339 339 339 340 340 340 340 340 339 337
344 345 344 341 341 340 339 338 336 332 327 335 334 340 345 343 342 343 343 340 337 336 334 333 334 335 335 336 336 336 337 337 337 338 338 338 338 338
345 344 344 345 339 340 340 339 336 335 330 334 336 340 342 343 343 345 344 344 341 336 334 332 332 332 334 335 334 334 334 334 333 333 334 335 336 337
346 344 342 341 343 344 339 342 339 340 334 335 338 337 340 344 344 344 340 336 339 337 333 332 331 331 330 330 329 329 328 328 328 328 328 329 331 332
347 345 344 343 341 340 340 339 339 340 339 334 333 338 338 339 340 341 340 339 338 335 328 329 330 329 328 326 325 323 321 321 321 321 322 323 325 327
348 348 346 344 343 343 341 341 341 339 339 336 335 335 336 338 337 334 333 336 335 335 334 331 331 331 328 325 324 324 320 318 317 317 318 319 320 322
349 348 348 346 340 340 339 342 343 339 337 335 334 333 333 331 332 335 333 333 334 334 333 333 333 333 333 327 330 328 323 321 318 317 316 316 316 317
351 350 350 342 339 333 334 336 342 342 341 335 333 333 336 335 335 334 331 329 326 335 332 330 334 333 333 333 329 325 322 321 319 318 317 315 315 315
354 353 348 345 340 340 332 331 332 333 337 344 339 339 338 339 338 327 333 330 330 334 333 328 333 330 330 329 325 323 320 319 318 318 317 316 314 312
355 353 350 347 344 342 342 342 340 341 340 339 343 344 344 337 338 338 337 334 334 332 334 325 328 326 327 326 324 323 320 318 317 316 315 312 309 308
354 353 351 348 337 330 344 344 343 343 333 329 330 328 326 327 331 333 330 325 324 327 331 324 322 322 322 322 322 321 317 314 312 312 312 311 309 308
352 352 331 340 326 324 338 341 341 341 340 337 337 329 329 332 326 336 333 327 326 321 327 319 319 319 314 318 319 317 316 315 312 312 312 311 308 320
347 345 343 322 317 316 326 343 339 342 336 339 337 335 335 336 334 334 335 328 321 320 323 322 317 317 314 312 313 315 315 316 318 317 310 309 308 310
343 342 342 317 313 312 320 326 321 328 338 336 333 333 332 331 331 328 329 329 327 325 326 326 316 312 310 309 308 311 313 317 317 316 317 312 309 308
345 336 322 310 309 312 318 317 319 337 334 333 332 331 331 329 328 327 327 327 326 324 320 322 317 315 312 309 307 309 311 313 316 316 314 313 312 312
328 324 319 319 318 320 320 320 334 338 335 332 330 330 327 324 323 324 321 320 318 318 321 319 319 317 310 310 310 310 311 309 313 312 312 311 311 312
326 326 324 325 326 324 325 326 328 328 330 330 329 324 322 323 322 322 321 319 316 314 312 312 317 318 315 317 310 309 309 311 312 311 310 307 309 311
327 326 326 327 325 324 324 323 324 325 330 330 327 323 322 322 321 320 319 317 314 312 309 309 310 310 310 314 316 309 309 310 310 310 309 304 305 311
329 328 328 326 325 325 323 322 322 327 333 329 325 323 323 323 320 318 316 314 312 310 308 309 309 308 304 302 309 312 310 309 307 305 304 305 306 309
332 327 326 326 326 326 326 327 329 328 327 326 325 324 324 322 319 316 313 312 309 308 307 309 309 308 305 304 305 310 305 309 305 302 303 308 309 308
326 327 327 327 328 328 326 325 325 325 325 325 325 324 322 319 315 313 311 303 303 307 306 307 309 303 311 312 306 305 307 304 304 303 304 305 302 301
327 330 329 328 326 326 325 326 325 322 323 324 321 319 316 315 312 309 308 307 307 307 307 308 311 311 309 306 303 305 303 305 304 305 305 304 301 295
329 326 324 324 325 326 326 324 322 321 320 318 316 315 314 311 309 309 308 307 306 306 307 306 308 309 308 306 302 302 303 301 300 302 307 306 304 303

GFSNE_sfc_thetae_048.txt.gz
Theta_e
355 353 346 339 342 341 339 337 332 327 329 339 334 345 345 344 347 346 345 342 340 338 336 336 337 337 338 339 340 340 341 341 341 341 340 340 341 341
352 353 351 341 343 342 340 338 337 332 328 335 336 341 344 341 345 345 346 344 340 338 336 335 335 335 336 337 337 337 337 338 338 338 338 338 338 338
355 352 352 353 340 340 340 339 338 337 331 334 338 344 346 346 344 345 346 345 342 337 337 335 333 333 334 335 335 336 335 334 333 333 333 334 335 335
355 353 351 346 349 350 341 349 344 345 335 340 342 338 344 347 348 348 343 340 340 339 337 335 334 333 333 333 333 332 330 329 329 329 328 329 330 330
356 354 351 350 347 344 344 343 341 340 341 336 335 340 340 343 344 346 345 345 339 338 331 331 331 332 331 329 328 326 323 323 323 322 323 324 325 327
358 356 354 351 348 348 345 348 346 342 343 338 335 335 338 344 341 337 338 340 338 339 339 333 335 334 332 328 327 326 322 319 319 319 319 320 321 323
360 357 355 352 344 346 344 348 349 342 336 336 335 334 335 335 337 337 335 337 343 341 338 337 336 337 336 328 332 329 326 322 320 318 317 317 317 318
362 361 360 348 346 336 336 338 344 345 342 335 335 336 343 339 339 336 335 333 331 338 338 335 337 335 335 336 329 326 324 322 320 319 318 317 316 317
365 364 356 353 349 351 336 332 334 334 337 349 343 344 343 345 344 341 341 337 334 339 338 332 336 334 334 332 327 324 322 320 319 318 318 317 316 314
366 366 364 362 359 354 349 343 341 342 343 343 346 347 349 350 349 346 342 343 341 338 339 329 333 329 331 330 327 324 321 319 318 317 316 314 311 309
367 367 366 364 346 333 352 346 340 342 336 331 331 335 331 332 337 340 335 335 329 333 336 330 327 324 325 325 326 324 317 315 314 314 314 313 310 309
359 362 338 355 332 326 348 346 342 343 345 343 341 333 333 333 328 341 343 333 330 328 332 326 321 321 317 322 322 321 320 316 314 313 313 313 310 318
353 354 359 328 319 320 329 345 341 345 340 344 340 340 339 338 337 337 341 335 329 324 327 328 320 319 316 314 316 317 317 316 317 318 311 310 309 312
354 355 353 318 312 315 322 327 324 332 342 340 339 336 336 335 337 338 340 336 331 330 330 331 320 317 314 311 311 314 314 316 317 318 318 314 309 309
354 340 316 310 314 317 315 318 323 340 339 339 337 336 336 337 340 336 334 335 333 331 326 328 321 319 313 310 309 311 312 315 316 316 317 316 314 314
323 323 325 327 325 324 323 325 334 339 337 339 336 337 338 333 329 328 325 325 322 322 329 327 324 319 312 312 311 311 312 310 313 315 316 315 314 314
329 329 329 332 330 329 329 329 333 335 336 339 336 334 330 328 326 327 325 323 319 319 318 320 324 322 317 318 312 313 313 312 313 315 315 311 312 311
330 329 329 334 330 328 327 329 332 332 336 335 333 331 328 326 325 325 324 321 319 318 315 314 313 311 312 317 319 312 311 311 312 315 314 307 306 309
333 336 335 333 333 333 329 328 327 331 339 334 333 329 327 326 324 323 322 321 318 316 313 313 313 311 307 306 311 315 311 311 311 309 308 306 305 309
335 335 336 333 330 328 328 329 329 334 334 333 331 328 326 326 324 322 321 319 316 312 311 312 312 312 309 307 307 311 306 313 308 305 304 306 308 310
335 331 329 327 328 329 333 334 335 333 332 331 328 327 327 326 324 322 319 307 309 311 309 311 314 308 311 313 310 309 311 306 306 306 304 304 307 305
334 333 332 331 329 332 334 335 333 330 329 328 328 328 327 324 321 319 316 311 309 309 311 314 315 314 312 309 307 309 308 309 308 306 305 304 305 298
330 330 330 333 334 332 331 328 328 328 329 328 327 326 324 320 319 315 312 311 310 310 310 310 311 312 311 309 307 307 308 306 304 304 307 307 306 304

GFSNE_sfc_thetae_051.txt.gz
Theta_e
363 361 350 341 342 342 340 338 334 329 332 341 336 352 344 344 347 346 347 340 340 339 337 337 338 338 339 340 341 340 341 341 342 341 340 340 340 341
355 363 360 344 346 344 342 340 338 335 330 338 339 346 349 342 347 347 346 346 341 338 337 336 336 337 337 338 338 338 338 339 339 339 338 337 337 337
363 364 360 363 342 342 342 342 339 339 334 336 340 350 354 350 347 347 346 348 342 338 338 337 335 335 335 335 336 337 338 337 336 334 333 334 334 334
362 362 359 352 358 357 343 355 345 351 338 350 350 343 349 353 354 353 346 341 344 338 340 339 336 335 334 334 334 334 334 333 331 330 329 329 329 330
365 362 358 358 357 345 348 345 342 345 345 339 339 341 346 345 348 352 352 351 344 338 335 335 332 333 332 331 331 329 327 325 324 324 324 324 326 327
367 365 361 358 357 356 354 351 353 345 344 340 339 339 342 349 345 339 341 343 341 340 339 335 338 332 331 329 328 327 323 321 320 320 320 320 322 323
367 366 364 358 349 352 349 351 349 347 340 339 338 338 337 339 340 341 339 340 346 345 342 341 340 338 338 330 333 331 327 324 321 320 318 317 318 319
366 368 367 352 349 339 338 338 347 349 344 339 338 338 342 346 343 338 338 337 332 346 339 337 347 340 338 338 334 333 329 325 321 320 318 317 317 317
367 368 365 358 352 357 338 335 335 336 340 347 343 344 351 350 350 351 346 341 337 345 342 333 341 339 340 332 329 329 324 321 320 319 318 318 316 315
366 364 366 362 360 355 356 349 346 346 345 343 343 346 351 354 357 352 352 348 344 341 348 330 338 334 337 334 330 327 322 320 319 318 317 315 313 311
364 365 362 362 350 336 357 354 348 345 336 331 331 333 335 335 345 351 342 336 334 336 340 332 333 328 329 327 329 324 325 318 318 320 317 314 312 310
360 363 340 354 335 328 353 355 350 343 341 337 336 332 333 337 332 347 346 335 333 330 338 331 330 324 318 324 324 324 323 316 315 314 314 314 313 318
356 356 359 329 325 320 329 352 345 340 336 337 338 338 337 340 339 339 345 343 334 331 330 332 325 321 319 317 319 321 320 320 319 319 310 309 312 313
359 357 356 323 321 316 323 328 325 332 340 342 338 336 335 337 338 340 342 344 343 338 333 337 323 319 317 314 311 316 318 320 320 320 321 315 309 309
357 346 324 315 313 317 322 322 324 340 344 338 335 334 337 340 342 341 344 344 339 336 330 333 325 325 318 312 311 312 312 315 318 319 318 319 319 319
329 344 330 323 322 331 325 327 342 340 339 341 339 341 340 338 335 337 332 330 327 326 335 336 332 324 314 314 313 311 314 312 315 316 317 317 318 317
334 333 329 330 329 330 330 333 339 340 337 340 339 338 334 336 334 333 330 326 322 320 323 326 330 330 320 324 313 315 314 313 314 317 317 312 314 315
330 329 327 328 329 329 330 331 338 335 339 338 334 332 334 332 331 328 327 325 322 320 320 320 321 316 315 321 320 313 313 312 314 317 316 309 307 311
330 328 328 329 329 330 330 331 334 336 339 335 331 331 335 331 325 326 325 324 320 321 320 318 314 312 309 307 314 314 311 313 312 310 310 307 306 308
330 329 328 330 333 331 330 331 333 335 335 331 334 332 329 328 327 326 323 322 320 319 316 315 313 313 311 309 307 313 307 314 310 307 306 306 308 309
336 331 332 332 331 330 329 329 329 330 331 333 332 330 330 328 327 325 323 311 314 317 312 312 314 312 316 314 312 311 313 307 310 310 308 304 305 306
335 335 334 333 329 329 329 331 330 332 334 333 332 332 329 327 325 323 322 318 315 313 312 314 318 315 314 311 309 310 309 312 310 307 307 304 305 300
336 336 338 335 330 330 332 332 332 333 334 333 330 329 329 325 325 323 320 317 313 310 311 312 312 313 312 311 309 308 310 309 307 305 307 306 306 306

GFSNE_sfc_thetae_054.txt.gz
Theta_e
360 361 356 350 349 348 347 344 339 332 335 343 340 346 349 347 342 337 336 338 338 337 336 336 337 338 338 339 340 340 340 340 341 341 340 339 338 339
358 358 357 350 348 351 348 347 343 339 334 342 342 344 344 344 343 340 346 341 337 338 336 335 336 336 337 338 338 338 338 338 339 339 338 336 336 335
360 360 356 355 354 349 347 348 345 343 337 340 346 350 347 345 343 347 347 344 338 336 335 336 336 336 336 336 336 336 337 338 337 336 334 334 333 333
360 359 358 354 354 354 352 345 344 346 342 340 346 346 346 347 348 347 345 342 342 339 336 337 335 334 334 333 333 334 334 334 333 331 330 329 329 330
362 359 355 356 352 348 347 347 346 349 350 341 342 346 347 348 345 346 348 346 346 338 334 333 333 333 331 330 329 329 329 328 327 325 325 324 326 327
364 362 359 355 352 353 347 344 346 344 342 342 339 338 344 344 344 341 340 344 342 341 337 335 334 332 331 328 328 327 324 322 321 320 320 320 322 323
362 363 361 357 350 350 350 347 342 342 341 337 336 337 337 341 337 340 338 341 341 344 341 334 334 333 332 330 332 331 327 324 321 320 318 318 317 318
361 361 362 352 349 341 341 341 345 340 339 337 336 334 336 338 341 338 338 336 331 346 339 337 340 339 337 335 334 334 330 327 323 320 318 317 317 317
362 361 360 360 350 353 339 337 337 336 339 342 337 336 337 340 341 340 338 335 334 339 337 332 338 335 338 331 329 328 330 325 321 320 318 317 316 315
360 362 361 359 359 354 352 345 344 343 338 342 343 340 343 344 343 341 340 338 339 340 340 329 335 333 335 329 327 327 326 323 321 318 315 315 313 312
361 361 362 361 349 336 352 350 347 344 336 334 333 331 335 335 338 340 337 333 331 333 338 332 332 331 327 327 325 325 321 319 317 316 316 315 312 310
358 359 339 354 337 328 350 351 347 347 343 337 334 334 335 336 333 341 337 332 330 328 335 331 329 325 317 324 324 320 319 316 314 313 314 313 312 312
356 354 357 330 323 320 328 355 349 351 340 338 337 337 336 335 336 338 338 336 332 330 333 333 325 321 318 317 319 319 320 317 317 314 309 308 310 311
357 358 357 326 319 319 322 335 330 333 340 336 335 334 333 333 336 337 338 339 338 334 329 330 323 318 316 314 310 315 316 317 317 316 316 315 308 308
355 345 322 318 311 317 318 321 324 343 338 335 334 335 336 337 339 336 337 336 335 332 331 329 323 320 317 313 310 311 310 313 314 316 316 313 313 313
338 345 329 325 321 329 325 324 344 344 340 337 336 337 338 336 336 336 332 333 328 325 330 330 326 321 314 313 313 310 312 311 315 317 313 313 313 312
346 354 340 337 337 335 331 332 338 338 336 335 336 336 336 336 333 333 331 328 322 322 322 327 328 321 318 315 310 313 315 314 314 314 311 309 309 309
341 338 333 333 331 329 330 330 333 333 334 333 336 335 334 331 330 330 327 324 321 320 322 322 321 317 316 317 319 313 312 310 313 312 311 303 302 306
334 330 328 328 328 328 329 329 330 333 336 335 333 331 331 330 327 326 323 322 321 321 321 322 319 315 308 305 315 317 310 312 312 308 306 304 301 303
331 330 330 329 330 330 329 328 329 331 332 331 330 330 330 328 325 322 321 322 320 320 318 316 313 312 309 308 306 311 308 313 307 305 304 304 306 310
333 333 335 336 336 336 334 334 333 331 331 330 330 330 331 328 323 323 322 317 319 319 314 312 313 318 314 311 308 309 309 307 311 306 305 302 301 301
334 332 333 333 332 332 332 333 332 331 331 331 330 328 328 325 323 323 318 315 317 316 314 311 314 314 312 309 308 309 309 308 308 307 307 306 302 297
333 338 336 336 336 335 334 333 331 330 330 331 331 327 325 324 324 323 321 317 315 313 312 312 314 314 312 311 310 307 308 307 306 304 306 307 307 306

GFSNE_sfc_thetae_057.txt.gz
Theta_e
349 349 343 340 338 336 330 331 326 320 324 331 331 337 337 340 337 335 331 337 337 335 335 335 335 337 338 338 338 339 339 340 340 339 340 339 336 336
351 349 347 344 339 336 334 332 331 327 322 332 333 336 339 340 340 332 330 336 337 335 334 333 334 335 336 336 337 337 337 338 338 338 338 336 334 334
351 350 347 346 339 339 336 335 333 330 325 327 332 335 332 337 336 333 336 337 332 334 334 333 333 334 335 335 336 335 336 336 337 337 335 333 332 331
353 348 349 350 343 342 341 332 332 333 328 324 333 337 333 334 333 335 339 341 339 336 333 332 332 331 332 332 332 332 332 333 333 332 330 329 328 329
355 353 349 350 345 344 340 339 335 334 335 329 330 336 336 336 336 337 338 337 339 340 334 332 332 332 330 329 328 327 327 328 327 326 324 324 325 326
357 357 354 351 349 346 342 339 336 335 334 334 330 332 335 337 334 333 335 340 339 341 337 334 333 332 331 328 327 326 323 322 321 320 319 319 320 322
356 357 357 354 348 347 347 344 337 334 334 333 330 330 330 334 335 336 334 336 338 339 335 331 330 332 331 330 331 331 326 323 320 318 317 317 316 317
357 357 357 351 348 341 340 341 342 336 331 334 332 330 328 331 334 334 336 332 329 339 336 334 333 333 333 332 330 329 326 326 324 320 318 316 315 315
357 357 357 357 349 353 339 337 337 336 336 334 334 331 330 334 335 334 333 332 330 335 333 329 335 332 334 335 330 328 326 326 323 321 318 315 314 314
357 359 358 357 355 353 352 346 345 344 340 338 337 336 337 339 339 339 336 334 334 335 336 327 332 331 334 332 328 326 324 322 321 320 317 314 312 310
356 356 357 358 346 335 352 350 347 346 338 332 335 333 333 334 338 337 334 331 328 330 334 331 330 329 330 325 323 325 321 319 316 315 315 312 309 309
355 355 338 348 334 328 348 351 347 348 344 333 336 331 332 334 332 335 333 330 330 327 333 330 328 328 314 317 319 321 317 315 313 312 312 311 309 308
354 353 353 329 324 321 327 354 351 351 344 340 337 337 337 336 335 334 334 333 331 328 333 332 328 321 312 310 313 315 314 314 312 310 308 307 306 308
356 356 352 326 319 319 323 332 331 332 351 343 338 336 336 336 337 337 338 339 338 334 332 331 321 314 310 307 305 307 309 309 310 307 309 309 307 306
359 349 334 321 319 315 316 318 320 340 348 344 340 338 337 339 338 336 337 337 335 333 332 327 318 313 310 307 305 305 304 306 307 308 306 305 306 305
333 341 330 326 321 326 323 320 328 337 343 343 341 341 338 336 334 335 332 331 324 323 327 323 318 313 309 307 306 304 304 302 307 306 305 304 304 304
337 342 335 335 335 335 332 329 331 337 341 342 337 335 335 334 334 334 332 326 319 320 321 322 316 313 309 307 304 304 304 307 306 306 302 299 299 303
337 339 338 336 333 332 331 330 331 332 333 331 333 334 333 332 331 331 330 325 320 319 319 317 314 312 310 310 312 304 305 302 305 304 299 297 296 298
333 331 330 329 328 328 329 329 329 332 334 332 332 332 331 330 328 326 324 322 319 315 317 315 313 309 305 303 306 311 302 303 304 300 298 297 295 296
331 329 327 326 326 327 327 326 326 328 330 329 331 330 330 328 327 324 323 320 315 313 312 316 314 308 304 302 302 306 307 305 300 298 297 297 298 308
325 324 325 325 325 326 325 323 325 325 326 327 329 328 327 327 324 323 319 315 313 310 308 308 313 312 306 303 300 301 302 307 303 298 297 295 295 295
326 326 326 326 325 326 328 324 326 327 327 324 325 326 328 325 323 320 318 315 314 312 308 306 306 305 302 301 299 302 303 300 303 307 306 302 295 291
327 328 326 327 326 325 325 328 326 326 328 325 325 324 325 319 319 319 315 314 313 308 305 304 305 305 303 302 302 301 300 300 300 297 297 306 307 306

GFSNE_sfc_thetae_060.txt.gz
Theta_e
344 346 340 336 336 334 327 327 322 318 321 328 329 335 337 334 334 337 330 337 337 336 334 334 335 336 338 339 339 338 338 339 339 339 338 338 336 334
348 344 344 342 338 335 333 328 327 322 318 325 331 332 336 337 337 336 330 335 337 335 334 332 333 334 335 336 336 336 337 337 337 337 336 337 334 332
350 347 345 344 341 336 333 331 327 326 323 323 329 331 332 335 334 336 331 329 329 334 334 332 331 332 334 334 334 335 335 336 335 336 336 334 333 331
351 349 348 348 342 339 335 333 330 328 325 321 324 333 329 332 334 333 330 332 329 332 332 332 330 330 330 330 330 331 331 332 332 332 332 330 328 328
352 351 349 347 346 344 338 337 333 330 329 325 324 331 332 333 331 331 331 332 336 338 332 330 330 329 328 327 327 325 325 326 326 326 325 324 325 326
352 353 352 348 348 346 343 340 337 333 329 330 327 329 332 334 332 330 330 334 335 338 340 335 333 332 330 327 327 326 321 320 320 320 319 319 320 322
353 353 354 353 348 347 347 344 341 333 332 331 327 327 328 331 331 331 330 332 336 337 335 334 332 332 333 331 332 332 325 321 319 317 316 316 316 317
351 352 353 350 348 340 340 341 344 340 335 331 332 328 332 333 332 334 332 327 328 338 336 335 334 332 333 332 332 329 325 322 320 318 316 315 315 314
352 353 353 355 348 354 341 336 337 336 339 339 330 332 332 333 334 332 334 331 332 334 335 333 334 332 335 337 330 328 323 322 321 318 317 316 313 312
354 354 353 354 354 352 353 351 345 346 341 340 342 339 337 337 335 335 335 334 333 334 334 328 332 331 334 335 331 328 323 321 320 318 317 314 311 309
355 354 354 355 345 335 350 350 351 348 342 333 334 335 332 330 335 337 334 332 327 330 334 331 331 330 331 331 331 325 321 319 317 317 316 313 309 306
355 356 338 347 334 329 347 352 349 350 350 348 338 335 331 335 331 339 338 332 330 326 333 331 329 328 322 318 321 322 320 314 313 312 312 311 307 306
354 354 355 330 323 321 325 354 351 352 351 349 348 342 342 338 337 340 341 337 331 328 332 334 329 326 314 312 314 316 315 312 313 311 308 307 305 307
355 357 355 327 318 317 322 330 327 327 349 352 347 343 339 338 337 338 338 337 337 334 335 335 327 322 312 307 305 307 310 310 308 307 308 306 306 306
359 349 332 320 316 317 315 317 321 335 338 342 346 347 343 341 340 339 337 336 337 336 336 333 321 314 311 306 304 303 303 303 305 305 304 305 304 304
336 344 329 329 322 329 328 324 327 332 335 338 341 346 344 339 336 335 334 334 329 329 333 330 318 313 308 308 304 303 301 301 304 302 302 302 302 302
340 339 336 337 338 337 335 334 333 331 334 338 338 335 333 333 332 333 331 328 323 324 320 316 313 311 310 309 302 301 301 304 304 304 300 296 298 300
338 340 341 340 336 334 332 331 331 331 332 332 333 332 331 331 329 330 328 325 322 321 317 315 311 310 308 309 309 302 302 303 303 301 297 295 294 297
337 337 335 333 331 329 330 329 328 330 331 331 331 331 330 329 328 328 325 323 320 318 317 316 311 305 301 298 303 310 301 301 300 297 297 295 293 296
329 330 328 328 328 325 325 328 327 325 325 330 329 329 329 328 326 325 324 321 316 314 315 313 309 306 302 301 303 307 305 303 299 297 296 294 299 305
325 324 324 323 322 322 321 321 321 322 323 328 329 329 329 327 325 324 320 312 313 312 313 313 314 311 304 302 300 301 302 305 302 298 295 293 294 295
323 323 323 323 323 324 328 323 323 324 325 323 327 328 328 324 322 320 318 316 314 310 312 309 308 304 300 299 297 299 299 299 303 305 304 301 295 290
324 324 323 323 322 322 324 324 325 326 326 325 326 323 323 319 319 317 315 314 311 307 304 302 301 301 300 300 300 300 299 298 297 297 296 304 305 305

GFSNE_sfc_thetae_063.txt.gz
Theta_e
342 342 338 333 333 331 326 324 320 316 318 326 328 333 335 333 335 335 339 338 339 336 335 335 336 338 339 340 339 339 339 339 339 339 339 338 337 334
346 341 341 340 336 333 331 326 323 320 317 322 326 330 333 335 336 334 334 336 337 335 334 333 334 335 336 336 336 336 336 337 337 337 336 336 335 332
347 345 343 341 340 337 332 330 326 323 320 322 325 328 330 331 334 336 335 330 329 334 334 333 331 332 334 334 334 334 335 335 335 335 336 336 332 332
348 346 346 346 340 339 335 331 329 326 324 322 322 327 328 330 332 332 335 333 329 331 333 332 331 330 330 330 330 330 331 332 332 332 333 332 331 329
350 348 349 345 344 343 338 336 332 330 326 324 328 324 329 329 329 330 330 331 331 333 329 330 330 329 328 326 327 325 325 326 326 326 327 327 326 326
350 351 350 348 348 347 344 342 339 332 328 327 329 328 327 330 329 328 327 329 331 333 335 332 332 331 330 327 327 328 322 320 319 320 321 320 321 322
351 350 351 351 347 346 348 345 341 336 336 331 332 326 328 327 328 330 330 332 332 334 334 335 332 333 333 330 332 331 325 323 320 317 316 316 316 317
350 351 351 348 346 340 339 341 345 342 339 337 336 335 334 331 333 332 329 328 325 334 334 334 335 331 333 333 332 329 326 324 321 318 316 315 315 315
349 349 349 352 345 351 341 336 336 335 340 347 340 338 337 337 334 331 333 331 330 334 335 332 333 331 333 334 329 329 326 323 321 319 317 315 314 313
351 351 350 350 350 349 350 350 346 345 343 342 345 348 349 345 339 335 334 335 335 335 337 329 332 330 334 336 330 329 325 323 321 318 316 314 311 309
352 352 352 351 342 334 348 349 350 351 342 334 334 335 334 333 335 336 332 331 329 332 335 331 331 330 333 333 335 329 325 321 317 317 316 313 308 307
352 353 337 345 333 329 346 350 349 351 352 351 345 337 333 339 333 338 338 333 332 330 335 329 329 329 324 329 330 327 324 315 314 313 313 310 306 306
351 352 354 330 324 322 325 351 350 352 351 350 351 352 348 345 344 341 338 337 334 333 333 332 329 326 320 315 317 319 318 313 313 310 308 307 306 307
353 355 354 327 320 318 321 328 327 326 345 347 349 349 346 343 344 342 340 339 340 339 335 333 329 327 315 308 308 309 311 310 310 308 305 305 305 306
357 348 331 319 314 318 317 319 320 334 337 338 339 342 345 350 345 339 338 335 335 335 335 334 329 318 314 307 304 305 306 304 305 304 303 304 304 303
333 342 334 331 326 332 328 323 330 333 334 336 337 339 343 340 336 337 333 331 327 326 333 330 322 317 310 308 307 303 302 303 302 302 301 300 301 301
339 343 338 339 338 338 337 336 335 334 332 333 336 336 334 332 331 332 331 327 324 323 318 315 313 312 310 307 305 304 303 302 301 300 298 297 298 299
335 341 344 343 342 338 336 334 332 331 332 332 332 332 329 329 327 326 324 325 325 322 316 311 310 309 309 309 310 303 302 302 301 299 296 295 295 298
342 342 344 340 336 335 334 329 329 327 330 331 331 330 329 328 326 326 324 323 321 317 313 309 306 303 299 298 303 310 300 301 298 296 295 293 292 295
335 337 336 334 331 328 326 326 324 328 326 329 329 330 329 328 326 324 323 320 317 311 310 308 305 302 300 300 302 304 304 302 297 296 294 294 300 303
329 328 328 326 324 323 323 322 321 321 322 323 328 329 329 327 325 325 321 313 311 312 310 310 310 309 302 303 302 301 301 304 301 298 294 294 295 294
327 325 323 322 321 321 321 319 319 322 325 322 327 328 328 327 325 323 320 315 312 312 310 307 303 301 299 299 298 299 298 299 302 305 304 301 295 292
326 323 323 322 322 322 326 326 325 324 326 321 322 327 325 324 323 322 318 314 311 309 306 303 302 301 299 298 299 298 297 298 298 297 297 305 305 305

GFSNE_sfc_thetae_066.txt.gz
Theta_e
348 348 345 343 338 336 334 333 333 327 328 335 337 342 341 342 345 347 348 344 342 340 337 335 336 338 340 342 342 341 340 340 338 339 339 339 337 336
349 348 347 347 345 340 338 335 331 331 328 331 336 340 341 341 342 345 344 342 339 339 336 333 334 335 337 337 337 337 337 337 336 337 337 337 338 334
351 350 350 348 347 346 342 338 334 331 329 336 332 338 341 342 343 344 342 340 340 335 335 333 332 333 334 335 334 334 335 335 335 335 336 336 336 332
351 351 351 350 349 349 346 344 339 336 333 332 337 334 338 342 342 341 340 339 338 335 332 332 331 330 330 330 330 330 330 331 332 332 333 334 333 329
353 352 352 352 351 350 348 346 343 341 336 332 334 335 336 338 338 339 340 341 340 336 330 330 330 329 328 327 326 325 324 325 325 326 328 329 329 326
353 353 353 352 352 352 351 350 349 343 340 336 338 338 338 340 337 336 336 337 337 339 337 333 331 330 329 326 325 325 321 321 320 321 321 322 323 324
353 353 354 353 348 349 352 352 351 346 345 340 340 341 338 339 337 342 336 338 339 339 339 338 335 332 331 328 330 330 325 323 320 320 318 317 317 318
353 353 354 348 347 340 339 340 348 348 346 345 344 342 343 345 345 339 338 333 331 338 335 335 339 336 339 333 331 329 325 323 322 320 319 315 315 316
353 354 353 354 348 354 343 336 336 336 340 351 349 348 347 349 349 344 340 336 335 341 335 331 336 333 336 334 328 327 324 323 323 320 319 316 314 313
353 353 352 352 353 352 353 353 352 350 346 346 349 352 354 355 354 349 343 340 339 339 339 330 337 333 335 336 329 328 325 323 322 320 318 315 311 309
353 354 354 354 342 333 351 352 353 354 343 334 335 335 334 333 336 344 340 338 335 336 337 333 334 331 333 332 331 329 324 320 319 320 320 313 308 306
352 354 335 347 333 328 349 352 350 352 356 357 348 340 335 341 333 338 343 338 337 333 338 332 330 330 325 329 334 331 328 318 317 317 313 310 306 314
350 352 355 329 323 322 325 354 351 353 352 353 354 354 352 349 349 353 349 341 337 336 337 334 329 325 320 318 321 325 325 318 320 316 308 306 306 312
353 355 355 325 319 319 321 328 328 329 349 348 348 348 349 350 352 352 349 344 343 339 335 333 329 325 317 314 317 318 320 322 321 316 313 306 305 305
356 348 333 319 317 319 318 321 319 337 339 341 341 343 347 350 352 350 342 337 335 336 335 333 332 325 318 312 317 318 316 313 316 313 313 314 312 312
332 343 335 333 328 335 335 324 331 337 340 341 341 345 345 346 342 341 334 330 328 328 334 331 326 320 312 314 317 317 315 313 312 313 312 311 311 312
340 348 340 342 343 342 341 339 335 336 336 337 338 339 340 337 334 334 332 329 327 324 319 314 314 315 315 313 311 313 312 311 312 310 311 308 308 309
336 346 345 344 344 343 341 339 337 335 337 338 338 338 334 334 330 330 331 330 326 321 315 312 314 311 311 315 314 309 309 310 309 309 310 308 306 307
344 345 346 347 346 344 342 337 334 336 339 337 338 337 334 333 329 330 330 326 323 321 316 314 315 311 311 309 312 310 311 309 307 306 306 307 307 307
343 347 347 346 342 340 337 334 335 335 336 337 336 333 332 331 331 328 327 324 322 319 313 311 312 315 315 312 309 312 306 310 309 306 303 305 305 304
339 339 341 340 337 335 336 336 334 331 334 334 332 332 332 331 329 328 325 315 315 320 317 314 315 311 311 314 311 309 310 304 309 309 304 305 305 305
335 336 333 336 336 334 333 332 330 327 329 332 333 332 331 330 329 327 325 319 321 321 320 315 311 311 312 313 311 310 308 308 306 305 305 306 305 302
332 331 328 328 329 331 331 329 329 329 330 328 330 329 330 328 329 327 323 325 323 320 316 312 309 311 310 311 310 310 309 309 307 304 305 305 305 305

GFSNE_sfc_thetae_069.txt.gz
Theta_e
360 361 359 356 353 349 345 342 338 331 333 342 340 353 351 351 352 352 354 347 343 341 339 339 339 338 340 342 343 344 344 343 341 339 339 338 338 337
359 360 360 357 358 355 351 348 344 340 334 340 342 347 350 347 351 352 353 346 343 340 339 337 337 336 337 338 338 339 339 339 338 337 337 338 337 337
363 362 361 363 357 356 356 353 349 346 340 340 344 347 350 350 351 353 352 352 349 338 338 337 335 334 335 335 335 336 337 337 336 336 336 337 337 335
361 362 361 359 361 362 358 359 356 355 346 349 351 348 351 352 354 352 349 347 349 341 335 335 334 333 331 331 331 332 332 332 333 333 334 334 336 334
362 362 361 362 361 360 360 357 355 356 355 349 349 352 353 352 353 354 351 354 349 342 333 331 331 331 330 328 327 326 325 327 326 327 328 330 332 331
362 362 362 361 361 362 361 361 360 357 356 352 349 348 349 355 352 347 347 351 351 350 345 338 336 334 331 329 326 326 322 321 321 321 323 323 325 326
362 362 363 359 350 353 359 364 363 357 354 351 349 350 349 350 352 352 350 351 354 352 350 351 352 344 343 332 332 330 325 322 321 321 320 319 319 320
358 361 363 354 352 341 340 342 354 362 358 353 351 350 359 356 355 354 353 350 347 357 348 343 345 340 341 335 331 329 326 325 322 321 319 318 317 317
362 361 357 354 355 362 346 337 338 336 341 359 358 358 359 361 364 360 355 351 347 351 345 337 347 342 345 339 328 327 324 323 322 321 319 318 315 314
362 362 362 361 363 360 359 358 359 359 358 353 357 359 362 365 366 363 355 351 350 350 348 334 346 343 345 342 329 327 324 322 321 320 319 316 312 310
360 363 363 362 347 335 357 357 359 359 348 336 338 337 335 334 338 349 345 346 343 345 343 337 339 338 334 334 334 325 322 320 318 318 318 314 308 307
360 363 338 352 335 328 355 356 356 358 361 363 364 352 343 350 335 345 349 343 343 340 343 335 332 332 326 328 332 331 327 316 315 315 316 311 306 322
354 356 358 329 325 323 326 360 358 358 357 362 362 361 362 359 360 364 359 353 344 341 340 336 331 328 323 322 322 329 326 323 324 318 309 306 306 316
357 359 360 326 318 318 325 332 329 333 356 356 356 354 356 356 357 359 360 355 349 343 339 339 334 327 324 323 321 321 324 325 325 325 327 307 305 306
360 350 333 320 317 323 319 323 322 343 349 349 349 352 356 357 356 352 344 341 342 342 338 337 334 332 333 330 322 319 322 324 326 327 324 322 321 320
337 350 346 338 334 341 341 334 342 351 353 352 353 354 356 351 347 346 338 335 334 330 332 338 341 333 329 332 332 330 329 324 326 325 324 323 322 321
347 355 353 349 349 348 350 353 351 345 342 344 346 349 346 345 342 341 337 333 335 330 329 327 323 325 326 332 329 330 328 325 325 322 321 318 318 318
344 353 350 348 347 348 348 349 350 340 343 343 344 345 344 342 337 338 336 337 333 329 324 320 314 316 323 324 323 327 325 324 323 321 321 315 314 315
350 352 352 350 350 350 350 350 344 345 349 343 344 344 342 339 334 334 335 336 332 327 322 317 318 324 322 320 321 310 320 320 319 318 317 316 315 315
347 352 353 354 353 354 352 348 345 343 340 342 344 340 338 338 333 331 331 332 327 322 320 317 329 330 328 322 319 319 305 319 317 316 314 314 310 305
352 352 355 354 354 353 350 345 341 338 343 347 344 337 338 337 334 335 331 319 322 327 322 322 329 319 325 320 317 316 316 305 316 319 316 313 311 310
361 355 349 348 346 345 341 341 341 337 341 341 338 338 338 335 334 333 330 330 327 330 329 328 321 322 322 323 321 319 316 315 307 306 307 309 312 308
357 355 350 347 343 342 344 344 344 339 339 337 337 336 337 333 334 333 333 331 330 332 333 325 320 320 321 320 318 318 318 316 314 312 312 306 306 306

GFSNE_sfc_thetae_072.txt.gz
Theta_e
364 364 361 355 355 353 351 346 340 334 336 346 344 355 351 351 354 354 355 349 343 342 340 340 341 343 343 342 343 345 346 347 346 343 339 337 337 338
360 362 364 356 358 357 354 350 349 344 338 343 344 350 354 351 352 355 355 348 343 341 340 338 338 340 340 339 339 340 341 343 342 339 337 337 337 338
366 365 366 367 357 353 355 354 351 349 344 345 345 352 358 356 356 357 355 355 353 340 339 338 337 337 338 337 336 336 338 339 338 337 336 336 336 337
364 366 365 363 367 368 359 364 359 361 352 357 357 352 362 367 363 360 356 353 354 345 337 336 335 334 334 333 332 332 333 334 334 333 333 335 336 336
365 365 366 367 366 364 364 360 357 357 358 354 352 351 352 354 357 365 365 366 358 348 338 334 333 333 332 331 329 327 327 327 327 327 328 331 333 333
363 365 366 366 366 367 366 367 365 362 360 355 352 351 352 361 357 353 353 357 356 358 353 346 341 336 333 330 330 328 324 323 322 322 323 325 327 328
362 363 364 361 351 355 362 370 373 362 355 352 349 349 348 349 354 354 353 355 361 367 361 359 357 358 355 335 335 332 326 325 320 320 320 320 321 323
358 362 363 356 354 343 342 342 351 364 368 357 352 350 364 361 356 354 354 354 354 365 354 348 357 355 355 353 340 331 326 325 321 322 319 318 319 320
364 363 357 352 353 361 346 339 340 337 340 357 359 360 361 364 366 365 367 361 358 360 361 348 356 353 356 354 333 328 325 323 321 321 321 319 318 316
364 366 366 365 365 363 361 359 361 361 361 357 360 361 362 367 369 368 363 361 360 359 362 342 352 351 345 344 333 328 323 320 321 320 318 316 314 311
362 365 368 367 350 337 359 360 361 361 347 335 337 337 337 336 341 353 349 354 350 351 349 345 340 339 335 336 333 324 320 319 317 317 318 314 309 307
363 368 340 353 336 329 359 359 359 358 359 362 366 355 342 358 336 358 358 352 351 345 347 342 337 334 329 331 331 329 323 315 314 315 315 310 307 323
352 353 357 330 327 325 326 364 359 358 357 366 365 365 368 368 366 369 369 359 352 349 346 343 333 331 328 325 323 329 324 321 321 317 310 308 309 318
357 356 360 325 319 320 327 333 327 332 358 359 360 359 358 361 363 364 359 358 356 352 347 342 335 335 330 331 326 325 328 328 328 332 334 313 307 307
360 350 329 320 314 322 318 323 323 355 357 355 356 359 361 365 365 356 352 353 346 343 343 342 337 340 336 333 327 322 322 328 336 335 331 328 325 322
341 352 348 338 330 340 349 342 355 360 360 358 359 362 366 358 354 353 346 346 337 336 342 345 346 344 336 335 332 323 328 326 332 332 331 328 326 325
351 360 359 358 358 359 360 363 364 365 358 358 359 357 354 352 349 350 345 343 339 333 334 338 343 342 342 338 329 329 331 332 333 331 330 324 325 324
352 359 357 356 353 354 354 355 357 353 357 356 354 352 350 350 348 347 344 341 340 335 336 335 334 333 333 336 325 334 333 331 330 330 329 322 321 322
357 359 358 354 357 360 360 359 356 358 358 353 349 349 351 350 342 346 342 340 339 338 337 335 334 334 329 326 332 309 331 330 328 326 325 323 321 320
355 356 357 358 359 364 362 360 359 357 353 352 352 350 349 347 343 342 339 339 336 336 334 334 333 334 331 330 328 330 304 331 327 326 324 323 313 307
360 360 362 363 362 362 363 362 360 351 346 346 345 344 346 350 342 339 336 323 328 334 332 330 334 325 338 336 329 326 325 306 320 329 327 320 316 315
362 362 361 361 362 362 361 359 354 345 343 344 346 346 348 346 341 338 336 336 332 333 333 336 335 336 333 328 326 327 324 323 310 308 309 313 317 312
362 365 365 361 362 361 357 350 345 341 343 345 347 349 348 342 342 341 337 335 334 333 333 332 334 332 331 329 325 327 326 321 319 317 318 306 307 308

GFSNE_sfc_thetae_075.txt.gz
Theta_e
364 366 360 353 352 351 350 347 341 335 337 348 345 358 353 351 353 354 357 350 344 342 341 341 341 343 345 347 344 344 346 347 348 348 345 341 340 340
360 371 369 357 359 355 354 351 348 344 339 345 345 355 361 351 355 358 359 348 345 341 340 338 339 340 340 341 341 340 342 344 345 343 339 339 340 339
367 366 367 373 358 354 354 354 352 349 344 347 350 357 373 368 361 363 360 365 357 341 339 338 337 337 338 338 338 337 338 340 341 340 337 337 337 337
363 369 365 360 373 372 359 368 359 363 352 357 358 355 364 369 372 374 363 359 361 351 339 337 336 335 335 335 334 333 333 335 336 335 335 335 335 337
365 367 367 370 372 365 371 363 358 361 360 355 354 356 356 357 361 368 369 366 361 351 342 337 334 333 332 330 331 329 327 328 330 328 329 331 333 335
365 367 367 368 371 373 369 373 369 364 359 354 354 354 355 365 360 356 356 357 358 358 355 350 341 337 333 330 331 328 323 322 324 324 324 326 329 329
365 365 367 364 352 357 361 369 373 364 355 354 352 350 349 351 356 356 355 357 361 372 363 369 362 362 367 334 338 334 327 322 321 320 321 322 322 323
364 367 369 359 354 343 342 343 353 366 367 357 353 352 361 358 357 354 356 354 353 367 362 360 367 358 363 358 335 334 328 323 320 321 320 320 320 320
365 366 362 352 356 367 347 340 342 338 342 361 361 361 361 365 366 363 364 364 360 363 363 355 361 354 351 348 330 329 325 321 320 320 320 319 318 317
365 368 368 364 363 364 367 366 365 366 364 357 362 363 366 370 372 366 367 365 364 364 364 348 354 348 343 339 328 325 321 319 319 319 318 316 314 314
366 367 367 367 351 339 362 361 362 362 347 334 335 336 336 335 342 357 355 355 354 357 353 353 345 341 338 333 329 321 318 317 317 318 317 315 311 309
363 367 341 355 339 332 362 364 361 363 365 365 368 357 339 353 335 355 362 358 360 346 351 347 339 336 331 335 331 327 325 315 313 313 314 312 309 326
353 353 356 331 328 326 327 365 362 363 360 366 365 364 369 370 373 363 373 368 359 351 349 346 335 334 335 328 328 331 328 323 321 316 310 308 309 317
355 349 352 324 320 322 327 333 329 334 357 356 357 358 360 363 365 371 370 367 360 357 348 348 337 338 335 331 326 327 327 327 325 323 324 313 308 309
358 343 328 319 314 320 318 324 324 353 355 356 357 358 362 364 371 361 362 358 353 349 350 346 344 344 340 338 330 324 325 327 332 334 335 323 328 325
342 352 346 335 325 339 348 337 353 360 360 361 361 362 365 372 366 356 347 350 342 340 346 348 348 347 339 339 333 325 330 328 334 338 337 335 331 327
352 359 356 356 358 360 363 365 366 365 361 362 362 363 365 370 358 352 347 348 342 338 337 343 348 349 344 344 332 331 333 334 337 337 335 330 330 327
351 357 357 359 360 360 361 359 363 358 364 367 365 364 359 356 350 348 348 347 347 340 339 340 339 337 338 339 333 334 334 334 335 337 335 327 324 328
360 360 358 358 360 359 358 358 357 360 369 365 361 360 356 353 346 346 347 347 344 342 341 340 337 335 331 328 335 310 333 334 334 333 331 328 326 325
358 359 358 362 361 359 360 361 363 362 365 362 359 357 354 351 345 346 347 346 343 342 340 339 336 337 334 332 332 334 305 338 333 330 329 329 315 310
359 359 361 361 362 362 363 365 363 363 363 360 356 356 353 351 349 347 346 329 332 340 337 337 338 332 343 344 334 332 328 308 324 333 332 326 320 319
357 356 358 361 362 363 362 366 367 362 359 355 354 351 348 346 345 342 346 343 339 340 338 340 342 339 337 335 332 336 330 326 312 309 311 322 325 317
360 359 360 360 368 366 365 363 361 361 359 355 351 347 345 344 346 348 345 341 340 337 338 336 337 337 336 335 330 331 333 329 324 321 320 308 310 310

GFSNE_sfc_thetae_078.txt.gz
Theta_e
366 367 365 359 358 357 356 353 347 338 338 351 350 356 353 352 357 352 356 350 344 343 340 340 341 342 343 347 349 346 345 345 345 345 346 345 343 341
364 365 367 361 361 361 358 357 356 349 341 349 349 354 361 353 356 354 355 350 346 341 339 338 339 339 341 341 343 343 342 343 343 343 341 340 340 337
363 366 363 365 361 360 363 362 357 354 347 349 356 358 364 361 360 359 361 359 358 346 340 338 337 337 338 339 339 340 340 339 340 341 340 338 337 336
364 364 365 364 366 367 362 361 359 361 355 349 354 355 356 358 361 368 364 360 359 352 343 338 335 334 333 335 334 335 335 335 336 337 337 336 335 335
363 365 364 366 365 365 367 363 363 363 360 355 354 360 356 354 353 359 362 361 364 352 341 337 334 333 332 331 330 330 329 327 329 330 330 331 333 334
363 363 365 364 364 367 366 366 365 363 360 358 354 353 354 358 362 356 352 356 358 358 351 345 342 338 334 330 328 329 325 321 322 324 324 326 328 331
364 363 363 363 355 358 364 366 365 363 359 356 354 354 350 354 352 355 351 352 355 360 363 362 361 359 353 336 335 333 328 324 320 319 321 322 323 325
359 361 364 356 353 344 342 342 351 358 356 355 353 350 352 356 355 352 353 350 350 368 361 358 361 353 347 334 327 326 326 324 320 319 320 320 320 320
361 360 360 359 352 361 346 340 340 338 342 353 351 351 352 354 358 356 356 357 355 360 361 353 356 346 340 334 325 324 324 320 319 320 321 320 317 318
360 359 359 359 358 361 364 362 359 357 353 348 350 355 358 361 362 361 360 359 360 361 359 346 350 338 336 331 324 322 320 319 318 318 319 316 314 314
357 358 359 362 349 340 352 352 352 353 347 335 340 341 343 341 345 351 347 349 350 355 354 350 339 337 333 329 327 320 317 316 316 318 316 314 312 311
357 359 340 350 338 333 353 357 355 357 360 360 362 354 337 345 333 346 351 351 354 349 351 345 336 336 330 331 329 326 321 314 314 314 315 313 310 321
354 354 357 333 327 325 327 357 355 357 357 361 362 361 362 364 369 360 359 361 358 354 349 342 335 335 331 327 328 328 325 322 319 315 310 309 311 319
354 354 354 327 320 322 326 332 331 332 357 356 354 354 355 361 365 369 367 369 361 355 349 347 338 336 331 327 324 326 326 325 323 320 319 312 311 311
358 346 327 323 316 317 318 323 323 345 350 352 353 355 360 365 368 366 360 358 351 349 349 348 343 341 339 332 325 325 323 325 326 325 325 321 321 318
339 349 345 335 324 335 345 329 342 354 355 356 356 360 365 364 365 361 355 348 345 340 346 346 345 345 339 337 329 325 327 324 328 329 328 325 325 323
347 355 354 354 351 353 358 362 357 356 356 359 359 360 362 362 364 353 351 345 339 338 337 343 345 347 344 339 328 327 328 330 330 332 332 328 328 327
347 355 356 355 355 355 355 357 361 358 363 361 361 361 360 361 361 353 346 343 340 339 337 338 340 338 338 337 333 329 330 331 332 334 333 328 326 326
357 356 357 358 359 360 360 364 361 360 361 360 363 362 358 356 350 348 346 343 342 341 340 340 337 334 329 326 332 323 332 333 333 332 330 328 324 324
360 360 361 362 362 364 363 361 359 360 361 361 362 362 359 354 350 347 345 344 343 341 339 341 336 334 332 329 329 331 311 333 332 329 329 323 312 316
360 358 358 359 361 365 363 361 359 361 363 364 363 361 358 354 350 348 346 330 333 341 338 338 338 332 340 342 333 328 317 309 325 331 328 322 315 315
357 359 361 362 361 362 363 362 362 364 367 366 363 359 356 355 350 348 346 343 340 339 339 341 343 339 335 333 332 330 326 318 311 310 312 321 319 312
358 358 359 360 363 370 369 360 360 363 365 362 358 354 350 348 348 345 344 343 342 339 339 338 339 337 334 333 330 332 329 323 320 319 312 309 310 311

GFSNE_sfc_thetae_081.txt.gz
Theta_e
351 349 351 351 348 349 341 339 333 327 328 335 340 346 344 342 347 346 343 348 344 342 340 340 341 342 344 345 348 349 347 345 344 344 345 345 345 341
352 353 351 352 350 350 348 343 342 335 330 337 339 341 354 353 352 345 345 347 345 341 339 338 338 340 340 341 341 343 344 344 343 342 342 342 341 339
352 352 353 351 350 348 350 350 349 342 335 339 344 350 348 346 348 350 352 350 349 343 342 339 337 336 338 338 339 339 341 341 341 341 341 340 338 338
354 351 351 357 353 349 349 348 349 348 345 338 343 346 348 351 352 352 356 361 352 351 342 337 335 333 332 333 334 335 335 337 336 336 338 337 336 337
355 354 354 353 352 355 354 352 352 354 352 348 347 350 351 348 346 348 351 354 357 352 343 338 336 334 332 329 328 327 326 327 328 329 331 332 333 336
355 353 354 355 353 354 356 355 354 353 352 349 348 347 347 349 350 345 344 346 347 354 350 344 344 337 332 329 328 328 324 321 321 322 324 326 329 331
354 355 354 355 353 353 357 356 356 354 352 350 347 346 344 342 343 346 342 343 347 349 355 355 352 348 335 327 327 327 324 322 319 319 320 322 324 325
353 353 355 351 350 343 341 343 353 353 348 346 344 343 342 343 346 344 344 344 341 357 353 351 346 337 334 325 325 324 323 322 319 319 320 321 319 320
353 352 352 355 349 353 345 339 339 337 341 349 343 343 342 344 345 345 346 346 347 353 353 348 344 333 330 325 324 322 321 319 319 319 321 318 318 316
351 354 353 353 350 348 349 349 350 348 344 343 343 348 349 350 351 352 350 350 352 356 355 344 340 332 328 326 323 321 320 318 318 318 316 315 314 313
351 351 351 350 343 337 345 345 343 345 346 336 337 336 338 338 345 351 347 340 343 348 351 346 335 333 327 325 324 320 317 315 316 316 317 314 310 310
348 350 337 347 335 332 347 347 347 350 349 351 350 339 334 339 336 344 352 341 346 348 349 340 334 333 324 327 325 323 319 314 313 314 314 311 311 319
346 346 350 331 324 322 325 348 346 348 346 349 351 353 354 354 356 342 343 347 347 351 348 340 335 333 324 324 325 324 320 321 319 315 310 309 312 318
349 350 349 328 322 322 325 330 329 330 346 349 348 347 347 349 352 359 358 356 358 355 348 341 335 331 322 323 321 323 324 324 323 319 318 311 312 312
354 346 334 325 319 317 317 323 322 332 341 343 345 346 349 352 354 354 351 348 346 346 347 345 339 333 326 321 322 323 322 323 324 322 322 319 321 316
337 343 332 331 331 338 333 325 326 336 339 342 344 348 351 353 354 353 346 344 340 338 344 345 342 337 331 329 322 323 324 322 325 324 324 323 324 319
341 347 347 346 347 348 347 348 338 339 344 347 349 351 354 355 353 352 351 342 340 336 336 340 341 338 337 329 320 323 324 324 326 326 325 323 323 322
338 346 346 347 347 347 346 345 352 345 348 349 352 353 353 351 350 347 342 343 340 338 335 337 336 334 331 329 328 323 324 325 327 329 328 323 322 325
344 345 348 349 350 350 349 348 348 352 355 355 353 352 352 353 349 346 344 343 342 341 338 336 337 331 325 323 326 323 325 327 326 328 329 328 324 325
348 348 349 351 352 352 353 353 352 352 351 350 350 351 353 349 346 344 344 343 344 342 338 336 335 333 328 327 323 325 316 328 329 326 328 322 314 313
350 353 353 355 355 353 354 353 353 351 351 352 353 355 355 350 346 345 346 329 334 343 339 337 337 330 335 333 325 321 320 308 321 330 327 318 309 308
351 352 351 351 351 351 355 354 351 349 350 352 355 356 354 349 347 346 347 346 342 342 340 339 337 335 334 331 328 323 320 313 309 312 320 320 315 308
347 348 349 349 349 354 355 356 355 354 356 355 353 351 349 347 347 349 347 345 340 340 340 336 336 334 333 331 328 326 321 316 312 310 308 308 310 314

GFSNE_sfc_thetae_084.txt.gz
Theta_e
347 346 345 347 345 346 340 335 330 325 326 332 336 340 345 343 344 344 345 344 343 342 340 339 341 342 344 345 346 347 349 348 348 344 344 346 344 343
348 347 347 347 348 347 346 341 338 331 328 333 336 339 345 353 351 350 345 343 343 341 340 338 337 339 340 341 341 342 344 345 345 342 341 342 342 342
347 347 348 349 347 346 344 346 344 339 334 337 340 347 345 346 350 350 351 350 351 344 341 338 336 336 336 337 337 338 339 340 341 341 341 341 341 339
350 348 348 352 350 347 345 345 345 345 343 338 340 344 346 349 350 349 351 356 354 349 339 337 334 332 331 331 331 332 332 333 335 336 338 339 338 338
350 350 350 349 348 350 350 349 348 351 347 344 345 346 348 347 346 346 348 349 350 347 343 334 331 330 328 326 325 324 323 323 326 328 330 333 335 336
349 351 352 351 349 348 349 350 351 349 348 346 345 346 346 348 346 343 342 343 345 353 349 339 334 332 328 325 325 325 322 319 318 322 323 327 330 331
350 350 351 351 348 348 351 350 350 350 349 347 347 344 343 341 339 341 340 340 346 347 352 350 341 335 328 324 327 327 323 322 318 318 319 321 324 325
348 349 351 349 347 341 341 342 349 350 349 346 344 343 344 338 340 340 339 340 339 352 350 348 340 330 327 323 325 323 322 320 319 318 319 319 320 321
350 350 349 354 347 351 343 337 337 337 342 349 342 343 340 341 340 339 340 340 341 349 353 347 338 328 327 323 323 322 320 319 318 318 319 318 318 317
350 351 350 350 347 347 346 346 347 347 343 341 341 346 346 347 344 347 343 344 346 350 356 346 336 328 326 323 323 320 319 318 318 317 317 316 314 312
349 347 350 351 341 334 346 346 346 346 342 334 334 334 334 334 338 344 344 341 340 342 350 346 336 328 326 323 324 321 316 315 315 316 317 314 310 310
346 348 334 343 332 328 345 345 343 345 344 345 346 338 333 338 333 339 345 343 340 344 350 342 334 331 324 325 323 322 319 313 312 313 314 311 310 320
346 346 347 329 324 322 326 347 345 347 344 342 345 346 349 351 351 344 343 347 340 342 349 343 335 332 327 322 323 322 320 319 317 314 309 309 311 317
350 349 347 325 319 318 320 327 326 327 337 343 344 347 348 349 350 350 350 344 350 352 349 344 336 332 325 322 321 322 321 323 323 318 317 311 310 312
355 346 331 321 317 319 319 322 320 328 335 337 340 344 347 350 348 349 347 352 349 348 348 343 339 332 327 321 321 321 320 322 324 322 320 318 319 317
338 345 338 330 327 331 330 323 325 329 333 336 338 342 343 345 346 352 349 344 343 338 343 345 341 335 328 322 321 322 323 321 323 324 323 322 322 323
340 346 342 335 340 340 340 341 338 333 334 337 338 340 343 346 349 351 348 343 343 338 336 341 341 340 336 327 320 324 323 322 323 323 323 322 323 324
335 346 344 346 345 347 347 347 345 341 342 342 343 345 347 349 349 345 346 346 345 340 338 337 337 335 334 332 328 324 324 324 325 324 325 322 322 324
349 344 346 346 346 347 347 346 345 345 348 346 346 348 349 349 343 345 345 345 343 342 337 337 336 333 330 328 327 321 323 325 325 324 326 325 323 324
346 347 345 346 347 347 347 348 348 346 348 351 351 351 351 350 346 346 345 344 343 339 336 335 336 335 332 330 325 324 315 325 325 324 325 327 321 314
340 346 346 345 347 349 350 351 351 351 351 349 349 348 349 348 348 348 345 326 330 340 339 336 338 329 336 332 326 323 324 312 324 327 327 325 320 317
342 345 346 347 346 346 347 350 350 346 347 349 349 351 352 352 350 347 343 341 340 343 343 340 337 333 332 331 330 327 324 318 310 311 317 321 316 312
318 320 316 314 313 313 316 321 340 348 348 349 349 352 351 348 347 345 343 342 344 343 342 335 333 335 332 332 329 331 324 318 314 317 318 308 309 310

GFSNE_sfc_thetae_087.txt.gz
Theta_e
346 343 342 344 344 343 338 333 329 324 325 330 333 338 341 348 350 349 347 345 341 340 339 338 339 341 343 344 345 345 348 347 349 348 345 343 344 343
346 345 343 344 345 345 344 339 335 329 328 331 335 337 344 349 350 350 350 347 345 342 340 338 337 338 339 339 339 340 342 343 345 345 342 341 342 343
345 344 344 345 345 345 343 343 341 337 334 338 337 344 345 347 349 350 351 350 352 343 338 335 333 334 334 334 334 335 337 339 339 341 342 340 341 341
346 344 345 348 345 345 344 343 342 342 340 338 340 344 345 347 349 347 348 351 349 344 334 332 330 329 327 327 326 326 326 326 329 334 338 339 339 339
348 347 347 346 344 345 346 345 346 347 344 341 342 344 345 346 347 347 346 344 348 344 331 330 329 328 326 325 324 324 323 323 321 325 330 334 336 337
347 347 348 348 347 346 346 345 345 345 344 343 342 343 343 345 343 342 339 341 342 351 340 334 332 330 327 325 326 326 321 319 319 320 323 326 331 333
346 347 348 349 347 346 349 346 345 344 344 343 342 342 343 341 340 339 338 339 342 345 348 345 335 332 326 324 326 327 322 320 318 318 319 322 323 325
344 345 348 347 345 340 339 339 344 345 343 342 343 343 344 339 337 337 336 336 335 347 348 345 337 327 325 322 324 323 322 321 319 318 318 318 320 321
346 346 346 351 345 349 341 337 336 335 341 347 342 342 340 340 338 336 336 337 337 343 346 345 335 327 325 323 323 322 320 319 318 318 319 319 319 318
347 347 347 347 346 346 346 345 344 345 341 340 341 345 343 345 342 342 340 340 342 347 349 343 334 328 325 322 323 320 318 318 317 317 318 316 315 313
348 347 348 348 340 333 344 344 343 345 340 333 334 333 332 332 335 339 338 339 337 339 348 345 335 328 324 321 322 320 316 315 315 316 317 315 311 311
349 347 333 343 331 326 341 344 341 344 342 340 340 335 331 336 331 338 341 339 336 339 347 343 334 329 321 321 322 321 318 313 312 313 313 311 310 318
347 347 346 328 322 320 323 346 343 343 339 340 340 341 343 345 348 342 341 343 341 342 346 345 335 331 328 322 322 321 320 319 317 313 309 309 311 317
349 350 347 323 319 318 319 325 324 327 335 335 337 341 342 345 348 349 348 345 349 349 349 345 338 333 326 322 320 321 321 322 321 318 317 311 310 312
353 344 330 319 315 316 317 321 321 328 333 332 335 339 342 346 345 344 346 348 348 349 349 347 340 333 329 325 321 320 319 321 323 321 320 318 319 318
336 343 337 330 327 331 330 325 328 332 335 336 337 338 338 339 340 342 343 344 345 344 343 345 340 334 328 326 323 320 318 318 322 323 322 321 321 322
338 345 347 337 338 339 338 338 335 331 331 333 334 335 336 337 339 343 345 343 345 342 339 341 341 337 333 326 321 322 321 322 323 323 322 321 322 323
334 346 346 346 346 344 344 344 342 339 340 339 339 340 340 340 341 343 345 346 346 347 339 339 337 334 334 332 328 323 323 323 324 323 323 320 320 324
348 345 347 347 346 346 346 346 346 347 347 344 342 341 342 343 341 344 346 345 345 346 339 336 337 334 329 328 327 322 326 325 324 322 322 322 322 324
344 348 346 347 347 346 347 347 347 346 343 344 344 343 344 345 344 345 345 347 347 344 337 334 335 335 334 333 326 326 315 326 325 324 323 325 323 315
337 342 347 349 347 347 346 346 347 347 345 346 347 348 349 348 347 348 347 328 331 337 339 337 339 331 337 332 327 324 324 314 324 327 326 325 323 319
336 338 342 344 345 345 346 347 347 347 347 348 349 349 349 349 349 347 346 340 340 342 340 342 339 333 331 333 331 326 326 327 316 311 316 322 319 316
319 319 317 314 313 314 319 326 339 347 344 345 345 345 348 349 349 346 343 340 339 339 341 339 336 334 334 333 329 330 326 322 322 322 322 315 315 313

GFSNE_sfc_thetae_090.txt.gz
Theta_e
353 351 350 350 350 348 347 341 339 335 337 342 343 351 354 358 359 360 360 348 344 342 338 337 338 339 341 341 341 341 343 344 347 348 348 344 343 343
352 352 351 351 352 351 350 346 341 340 339 341 346 348 355 358 359 362 360 348 346 339 336 334 336 336 336 335 334 334 336 340 342 344 345 342 343 344
351 351 351 351 352 352 351 350 348 344 342 347 345 353 356 358 361 362 359 360 354 339 335 332 330 330 330 330 329 328 327 330 335 340 342 341 339 341
351 351 350 350 352 353 352 352 350 349 347 347 351 353 355 358 359 359 358 354 354 338 332 330 328 327 327 326 327 327 326 324 327 332 338 338 339 340
352 351 353 353 351 351 352 352 353 353 352 349 350 353 354 356 358 359 357 356 353 335 330 330 328 327 326 325 325 323 320 322 322 325 331 334 336 338
352 352 353 353 352 353 353 353 353 352 352 350 351 352 353 356 353 351 350 353 350 354 342 337 333 329 327 325 327 326 320 319 318 322 324 327 330 333
352 352 353 352 346 349 354 356 354 352 352 350 351 351 353 351 352 351 347 348 351 354 358 351 345 335 327 328 328 327 323 320 319 319 319 322 324 326
351 352 353 348 347 339 338 340 349 354 352 351 352 350 353 352 351 348 347 347 345 356 357 355 346 333 326 329 324 324 322 321 319 318 319 320 321 322
351 351 350 351 347 354 343 337 336 335 340 355 352 352 351 353 351 349 347 347 347 352 354 353 344 335 329 328 323 322 320 319 319 319 320 320 319 318
351 352 351 352 352 352 353 352 353 353 350 346 349 352 354 355 353 353 352 350 351 353 356 349 343 334 327 328 322 321 319 318 318 318 318 317 315 314
351 352 352 352 341 332 350 350 351 351 341 333 334 334 333 332 338 349 346 345 346 351 355 355 344 333 330 328 327 319 317 315 315 317 318 315 312 311
353 354 334 347 332 326 348 351 349 351 352 352 351 340 334 341 330 343 348 345 348 348 356 355 344 337 335 329 326 326 323 313 312 313 315 312 310 328
348 348 351 327 322 319 324 351 348 350 348 349 349 349 350 351 351 348 349 349 350 350 355 358 342 337 331 325 325 325 325 322 321 315 309 309 311 321
346 349 350 323 318 317 320 326 325 327 346 345 345 345 347 348 350 353 356 353 355 358 361 360 350 342 333 325 324 323 325 326 324 320 319 312 310 312
351 343 332 320 317 319 317 321 320 334 340 341 342 344 347 349 353 354 355 357 356 355 354 353 353 340 333 334 326 322 321 324 325 323 321 321 322 321
335 343 338 334 328 335 333 329 334 339 340 342 344 346 349 347 348 350 350 352 348 353 356 352 352 340 333 332 329 322 323 322 324 324 324 323 324 325
338 345 347 347 348 348 347 347 345 343 339 342 343 344 343 345 347 351 351 351 347 354 351 347 344 341 337 330 327 327 326 325 326 326 324 323 324 325
336 345 345 346 345 346 346 348 348 344 346 346 345 345 345 345 346 349 350 351 346 352 353 345 339 336 335 335 333 333 328 325 328 326 324 323 324 329
346 345 346 348 346 347 348 347 348 351 353 349 347 347 347 347 344 347 347 347 347 351 353 344 341 339 333 333 343 325 330 327 328 326 326 326 324 328
346 349 348 349 349 349 349 349 351 353 352 351 350 349 347 345 343 342 346 349 351 353 346 341 342 341 340 340 341 340 316 333 329 326 325 326 326 319
339 346 351 354 351 352 352 352 353 352 351 350 350 348 347 345 345 348 352 331 339 349 344 342 345 334 348 340 338 337 332 314 330 331 329 324 322 323
347 345 348 350 352 353 352 352 351 350 350 350 350 352 350 350 350 352 351 350 345 348 348 353 349 345 338 337 340 343 334 331 319 314 320 324 326 322
327 327 320 317 315 314 316 320 325 332 338 344 346 349 352 349 350 351 352 352 350 344 347 348 347 340 338 339 335 337 337 331 332 326 329 317 315 314

GFSNE_sfc_thetae_093.txt.gz
Theta_e
362 362 359 360 360 359 359 355 349 340 342 352 351 362 363 363 363 369 368 348 346 341 337 338 338 338 337 336 335 335 336 341 344 349 345 345 344 341
359 361 362 359 359 360 359 359 355 350 344 353 353 360 366 364 362 370 367 352 346 338 335 333 333 334 333 333 333 332 331 333 341 345 344 343 343 342
361 360 360 363 358 358 360 360 357 355 348 351 357 362 366 366 367 370 364 362 358 337 334 331 330 330 330 331 331 331 330 328 334 343 344 341 341 341
359 361 359 357 361 362 358 361 359 361 355 354 359 357 362 367 368 368 364 359 362 338 332 330 328 328 328 328 328 326 325 326 328 336 340 339 340 341
360 360 359 360 361 359 361 359 358 359 359 355 354 357 360 363 362 364 363 364 357 336 331 330 329 328 327 326 326 323 321 322 323 330 332 333 336 339
361 360 359 360 360 361 360 361 362 360 359 357 353 353 355 361 362 354 350 354 355 358 346 339 336 329 328 327 328 327 321 319 321 324 326 327 330 334
361 361 360 358 350 352 356 359 361 357 353 351 350 350 350 350 354 352 349 352 356 361 358 360 360 355 342 333 333 329 324 321 321 321 322 323 325 327
360 361 362 353 351 340 339 340 350 359 356 351 348 350 357 356 353 351 352 350 345 360 359 356 364 357 343 338 325 324 323 322 320 320 321 321 322 322
361 361 359 356 353 360 344 337 337 335 340 358 356 355 358 358 359 358 358 355 352 356 358 355 362 357 343 338 324 323 321 320 320 320 320 320 320 319
361 361 361 361 361 360 360 359 360 360 359 354 357 359 361 363 363 361 359 358 357 358 364 352 363 357 345 343 323 321 319 319 318 318 319 317 315 314
360 361 362 362 347 336 357 357 359 358 345 337 337 336 336 335 340 355 352 350 348 351 363 358 362 356 347 345 338 320 317 316 316 317 318 315 312 312
358 363 337 352 336 328 355 357 354 355 356 357 359 349 338 349 331 351 355 350 348 349 361 357 359 356 347 345 330 338 335 313 312 313 315 313 311 333
347 348 350 329 325 321 327 360 355 356 352 358 357 356 357 358 358 358 360 356 351 351 357 363 358 356 353 343 335 335 336 326 327 319 310 310 312 325
352 351 352 323 319 318 324 332 329 331 355 354 352 351 352 354 356 359 364 362 361 362 366 365 358 358 354 341 332 331 332 333 335 326 323 313 311 314
352 344 329 318 315 320 319 323 322 346 351 351 349 350 353 356 363 362 363 366 366 365 362 367 361 362 356 347 336 334 329 331 334 331 326 322 324 327
335 345 341 336 332 340 342 333 345 354 353 352 351 353 357 358 357 358 356 357 356 356 365 365 362 361 354 349 338 333 333 333 331 334 331 328 328 329
343 351 351 351 351 350 353 356 357 356 353 354 354 354 355 356 356 358 357 356 353 352 353 358 358 359 355 349 336 339 337 334 333 332 331 329 329 330
339 349 350 351 348 348 349 349 352 351 355 355 354 354 354 355 356 357 357 355 353 353 353 356 348 342 339 340 337 343 341 340 339 335 333 330 329 333
346 350 351 350 349 349 349 349 350 354 360 355 355 356 357 357 354 354 353 351 351 353 355 355 348 346 340 339 353 328 349 347 341 336 334 333 333 334
345 349 351 351 352 351 350 349 351 353 356 357 357 358 358 355 352 350 349 348 347 349 353 356 350 347 346 347 351 354 315 351 342 340 338 334 334 321
338 344 349 353 354 356 356 353 352 353 355 356 359 359 357 354 350 349 349 329 338 350 350 350 354 339 356 353 350 350 351 316 331 345 343 336 330 330
351 345 347 350 353 355 356 353 353 351 355 357 357 358 358 355 351 352 352 351 351 353 356 359 360 351 349 344 347 352 354 350 324 315 320 327 332 327
335 329 328 327 325 325 330 333 334 335 332 331 334 341 348 351 353 354 354 354 354 349 350 346 347 346 343 341 338 344 349 348 345 332 334 320 318 316

GFSNE_sfc_thetae_096.txt.gz
Theta_e
362 364 358 355 355 357 355 353 347 339 341 355 351 360 362 360 362 364 366 354 348 341 338 337 337 337 336 336 336 335 334 336 344 348 346 344 344 345
357 362 363 355 357 356 355 354 354 348 342 347 351 360 366 364 363 368 365 355 346 339 335 333 334 334 334 334 334 333 333 333 341 347 342 342 341 342
362 362 361 364 356 354 355 355 353 352 347 348 354 361 366 365 367 369 363 362 354 337 334 332 331 331 331 332 331 330 330 331 337 343 342 342 341 341
361 361 360 356 364 364 356 361 358 359 352 355 362 356 364 366 368 367 360 357 360 338 333 330 330 329 329 329 328 325 326 328 331 341 341 340 340 340
361 361 359 360 361 358 360 357 355 356 358 353 352 356 357 359 362 366 363 362 353 337 332 331 329 329 328 327 326 324 322 323 327 333 333 334 336 339
363 363 361 358 360 362 361 363 362 360 362 355 353 352 351 361 358 351 348 350 351 355 350 345 339 331 330 328 329 327 322 321 323 326 326 327 331 334
364 364 362 356 349 351 355 363 364 357 353 350 348 347 346 348 353 350 347 349 356 359 357 359 365 359 348 334 336 329 324 323 323 322 322 323 325 328
362 365 365 354 353 343 342 341 349 359 358 349 344 345 361 355 352 349 350 348 346 355 357 355 368 363 357 349 326 325 324 323 323 321 321 321 322 323
363 363 361 357 357 363 344 338 339 337 340 358 357 356 358 358 361 360 363 357 354 356 360 353 366 362 358 339 325 324 322 322 321 321 321 321 320 319
363 363 365 364 362 361 362 361 361 360 360 357 359 360 363 363 364 366 365 364 361 358 366 353 360 362 359 352 325 322 321 321 319 319 319 317 316 315
363 366 367 367 350 336 361 360 359 357 345 337 338 337 336 335 343 357 352 348 344 344 355 356 356 361 359 357 341 322 318 317 317 317 318 316 313 313
357 366 339 354 338 331 360 360 357 357 354 356 359 352 343 354 334 355 356 349 345 342 355 355 354 361 353 357 349 343 337 315 313 314 316 314 311 336
348 345 348 330 328 325 327 364 359 357 352 356 357 356 357 357 358 361 365 357 349 345 349 361 354 355 357 354 351 347 346 333 337 323 310 310 312 327
355 353 354 324 319 321 327 334 329 333 354 345 345 347 348 348 350 356 372 370 365 368 370 370 358 355 353 356 351 347 343 342 341 337 330 316 311 314
354 346 327 318 313 320 319 324 324 350 349 344 344 347 349 350 364 367 371 376 376 371 367 370 364 365 358 356 355 349 343 343 343 339 335 328 327 331
335 344 342 336 330 339 342 335 348 352 350 348 349 351 352 351 350 355 355 356 356 357 372 372 370 368 359 361 358 354 347 340 343 342 335 333 332 333
344 351 351 351 352 353 353 354 355 355 352 353 354 353 352 351 350 353 354 354 353 352 352 358 370 370 363 365 357 355 352 346 347 342 337 332 332 334
345 348 351 353 354 355 354 353 354 350 355 356 355 354 352 350 348 350 353 353 352 353 353 354 359 350 347 348 344 353 351 344 345 344 342 337 334 335
347 352 351 353 355 357 356 352 352 356 362 355 353 353 352 349 347 350 352 354 354 357 358 359 354 352 345 343 354 335 353 350 347 345 343 341 340 343
347 351 353 354 357 355 353 353 354 354 357 357 353 352 352 351 351 352 353 354 357 356 356 358 359 357 352 350 350 356 317 358 355 350 346 346 344 325
339 344 352 355 360 363 360 358 358 356 355 356 356 358 359 357 355 354 357 336 342 356 352 354 359 344 363 361 352 354 352 320 335 356 354 346 342 341
348 345 348 351 354 358 359 362 361 356 358 355 355 360 364 363 358 357 357 355 357 356 357 359 366 362 356 351 349 354 359 346 325 321 319 327 344 337
340 350 346 337 331 330 332 336 344 352 354 356 357 351 354 353 356 355 353 354 354 357 357 359 363 359 352 349 342 350 349 353 351 340 345 325 321 317

GFSNE_sfc_thetae_099.txt.gz
Theta_e
364 364 358 353 353 353 353 351 347 340 341 352 350 370 361 362 361 365 365 353 349 343 339 337 337 337 337 337 337 334 335 338 343 349 345 345 342 346
355 368 365 356 355 354 353 352 351 348 343 348 348 361 369 364 363 370 366 355 347 341 336 334 334 334 334 335 333 332 333 337 344 345 343 342 340 345
363 361 362 370 357 352 353 353 352 351 346 350 353 361 373 374 368 372 364 367 353 338 336 334 332 332 332 332 331 330 333 335 345 342 341 341 341 343
358 362 359 356 368 370 356 368 359 363 351 358 358 356 368 375 376 376 362 357 356 338 335 333 331 331 330 330 328 327 329 331 338 340 339 339 340 341
360 359 358 361 365 360 365 359 355 357 360 354 352 354 357 359 364 370 372 369 353 337 333 332 331 330 330 329 327 324 323 326 330 338 333 334 337 340
361 361 361 360 364 368 364 370 365 361 359 354 353 352 352 363 357 352 351 351 349 352 350 346 337 332 331 329 329 327 322 322 325 328 327 328 331 335
364 363 363 358 351 354 354 365 370 360 352 350 348 347 345 350 354 350 350 348 355 352 351 353 352 347 340 332 335 330 326 324 325 322 322 323 325 328
367 368 369 356 352 343 342 342 351 360 365 349 344 344 362 354 350 348 350 346 345 355 356 353 356 361 362 356 327 327 325 325 324 321 321 322 323 324
368 370 362 355 357 364 345 340 341 337 340 359 359 360 361 365 366 366 361 360 354 357 358 353 357 361 363 335 327 326 324 324 323 321 321 321 321 320
366 369 368 368 369 367 367 364 363 363 361 354 358 361 364 368 368 365 369 371 364 363 366 352 354 356 364 343 327 325 323 323 321 319 319 318 316 316
364 367 368 370 353 339 364 365 367 365 347 340 344 343 340 338 345 357 350 348 345 346 353 348 351 352 364 357 335 325 321 318 317 317 318 317 313 313
359 361 341 353 339 332 363 365 363 364 364 361 363 351 343 353 336 355 355 348 346 344 354 348 349 351 352 365 354 337 334 316 314 314 315 314 312 331
353 354 353 331 328 326 326 366 361 363 360 363 359 356 354 358 362 364 366 358 351 348 352 354 351 350 351 353 355 353 352 332 337 324 311 310 311 327
356 355 356 323 319 322 328 335 332 336 357 354 350 346 346 347 351 357 370 370 366 364 368 374 358 354 351 347 349 354 352 348 345 340 334 317 310 315
356 348 324 318 316 319 317 322 324 348 352 350 350 349 349 349 359 364 374 381 379 379 371 374 366 363 359 354 351 352 349 348 347 343 340 332 326 334
335 346 342 334 323 330 340 333 343 351 352 353 353 354 353 351 351 354 353 353 353 358 373 374 373 371 358 359 358 355 352 348 349 347 342 338 335 334
321 340 351 352 351 353 356 358 359 356 353 354 354 354 352 353 354 355 353 352 351 353 353 359 373 374 368 367 356 359 355 351 352 350 344 336 335 335
328 337 345 350 353 354 356 355 356 353 358 358 356 355 354 355 355 356 355 352 350 352 353 355 357 363 363 365 353 358 362 358 353 351 346 339 336 337
328 339 343 349 352 356 355 353 354 359 363 358 357 357 357 358 353 353 353 351 350 353 355 355 355 362 351 345 356 337 358 360 355 347 343 341 343 344
326 336 341 350 352 355 358 358 358 360 358 358 361 359 357 354 352 351 351 350 351 352 352 356 360 360 355 353 354 358 325 360 354 346 343 347 347 328
335 337 346 356 355 354 357 362 363 361 357 354 357 359 359 355 351 352 351 331 339 352 350 354 362 344 365 368 354 356 357 320 338 352 349 345 343 345
330 339 347 349 350 348 351 356 361 358 355 354 356 358 360 361 355 355 355 355 355 352 355 357 368 365 360 358 353 356 361 356 332 320 321 329 348 341
319 322 327 339 338 339 338 333 339 342 346 349 351 355 357 357 360 359 358 359 358 356 355 354 358 364 358 357 347 354 353 353 346 343 343 324 321 323

GFSNE_sfc_thetae_102.txt.gz
Theta_e
367 365 366 357 355 359 358 357 351 342 343 352 351 367 366 366 365 367 368 358 349 344 340 338 338 337 337 336 333 334 338 341 346 350 346 345 343 348
361 366 365 361 361 361 356 358 358 353 346 352 354 362 367 362 365 366 369 355 346 342 338 336 336 336 335 334 332 334 338 341 347 345 343 342 342 346
365 363 365 368 362 360 362 360 358 358 352 355 356 359 359 363 368 369 369 364 348 340 337 335 334 334 334 333 332 334 336 342 343 342 342 341 340 344
364 363 362 359 365 364 361 358 358 360 353 349 355 356 362 365 371 366 368 359 358 340 336 335 333 331 331 330 330 330 331 337 339 338 339 339 339 342
364 362 362 363 363 361 364 361 360 363 362 358 356 357 357 362 361 365 365 366 354 338 334 333 332 331 330 328 327 325 324 329 333 334 333 334 337 340
364 364 363 363 362 364 363 362 361 359 358 357 353 354 358 360 362 352 347 354 355 351 345 340 335 333 331 329 329 327 323 325 326 329 327 328 331 335
363 365 365 362 355 357 358 361 360 360 356 353 350 349 348 351 349 350 351 353 350 356 357 345 339 337 333 331 334 331 327 326 327 324 323 323 325 328
359 363 367 360 353 343 342 341 348 355 355 356 349 346 352 356 353 353 351 346 344 361 356 351 358 348 345 342 330 329 327 326 326 322 321 322 322 324
363 362 359 356 353 360 342 339 339 338 341 351 351 353 352 354 357 357 355 355 351 355 356 351 359 360 344 330 328 327 326 325 324 321 321 321 321 321
359 362 365 362 361 361 363 361 357 357 353 347 349 350 352 355 359 358 356 358 360 362 360 351 357 358 352 337 328 327 325 324 322 320 319 319 317 316
355 359 360 360 350 341 358 359 361 362 350 342 343 341 341 341 347 358 351 347 343 344 351 344 345 355 355 337 330 327 323 320 319 318 318 316 313 313
357 357 339 347 337 333 355 359 355 356 358 359 357 345 340 346 336 349 353 346 345 343 348 348 347 348 345 346 334 327 324 316 314 314 316 315 311 326
354 354 355 331 326 325 326 355 355 356 354 358 359 358 357 356 357 354 353 350 347 347 350 353 354 353 349 352 345 338 335 322 325 317 311 310 310 325
352 355 355 323 317 314 319 327 328 334 355 354 353 351 349 348 348 351 359 360 359 355 357 364 356 355 351 348 346 350 346 334 336 331 325 315 309 314
345 339 322 320 318 324 319 320 322 339 345 347 348 348 350 350 350 351 353 368 364 363 363 365 361 358 356 350 348 349 346 342 342 337 333 325 322 322
332 332 328 323 323 330 334 340 340 341 344 345 345 348 351 351 350 349 344 343 357 360 366 366 366 362 357 356 354 352 349 344 345 342 337 333 329 331
316 326 332 338 346 351 351 351 351 349 345 347 347 348 350 352 351 350 346 346 347 346 346 360 367 366 364 360 354 354 352 350 347 344 339 334 332 332
315 322 329 337 341 346 348 352 353 349 353 352 351 350 349 349 350 351 351 348 346 346 346 348 353 360 361 362 354 356 356 353 351 346 343 335 333 334
314 325 332 337 340 344 348 351 350 352 356 356 354 354 352 351 347 348 349 349 347 349 349 350 350 351 348 344 355 337 356 355 354 346 345 340 337 337
320 328 334 336 340 342 346 349 351 350 352 346 344 351 352 353 351 350 350 349 348 347 344 346 348 349 346 345 347 356 325 356 354 351 344 344 341 332
325 327 331 333 339 343 348 350 351 350 346 348 349 350 345 351 349 350 349 330 335 345 343 344 346 343 364 359 351 349 356 320 339 354 349 341 338 339
322 322 324 324 326 330 343 349 348 347 346 342 340 341 346 352 351 351 350 349 349 348 348 352 360 362 355 349 347 348 352 354 326 320 324 336 341 336
316 315 315 317 320 323 326 332 335 339 339 339 340 336 340 345 348 349 349 349 349 348 350 350 350 353 351 351 344 349 347 350 345 343 344 323 320 323

GFSNE_sfc_thetae_105.txt.gz
Theta_e
349 351 351 350 351 350 344 344 339 332 333 341 341 356 354 352 355 358 358 358 348 343 340 337 337 337 337 335 336 339 341 344 349 349 346 344 342 346
352 346 349 351 352 351 351 348 345 339 334 341 344 346 358 353 357 357 356 354 347 342 338 336 336 335 335 334 335 340 340 343 347 345 343 342 341 345
350 350 349 352 350 350 352 348 347 347 338 341 346 346 348 349 352 361 359 357 347 340 337 335 333 334 333 333 335 337 340 342 343 342 341 340 341 344
350 351 348 354 348 352 349 348 346 346 343 338 344 349 352 350 351 358 358 361 350 340 335 334 332 332 331 331 331 333 335 338 338 338 339 338 339 341
351 351 349 349 348 350 348 348 349 352 349 346 345 348 348 350 352 349 344 348 347 338 334 333 332 330 330 328 327 327 329 332 333 332 333 333 336 339
353 353 353 352 350 350 350 348 348 348 346 345 345 345 347 349 346 340 340 346 342 347 341 336 333 332 331 328 328 327 325 327 327 327 327 327 331 335
351 354 356 355 353 352 353 350 349 348 348 346 342 338 337 342 342 344 341 343 341 342 342 336 333 332 329 330 332 332 327 326 326 325 323 323 325 328
348 351 354 355 352 345 343 344 347 342 339 342 342 340 338 342 344 342 344 342 339 351 347 347 339 337 337 331 332 330 326 326 327 324 322 321 321 324
352 352 352 354 348 352 344 337 336 336 339 339 336 338 340 343 342 342 342 343 343 347 349 347 349 348 344 336 330 328 326 325 325 324 322 321 320 321
348 351 351 349 349 351 354 353 348 346 343 341 341 343 342 344 344 345 345 346 348 349 353 343 343 347 338 332 328 327 324 323 322 321 319 318 317 316
347 348 351 350 345 340 349 348 351 355 349 338 338 338 338 339 342 349 347 342 343 342 341 339 339 340 339 333 328 327 323 321 320 319 319 317 314 314
349 349 336 341 333 332 346 348 348 351 350 352 346 340 337 342 335 343 346 342 343 339 342 339 336 337 338 339 328 324 322 317 315 315 316 315 311 325
346 349 350 327 319 318 319 340 344 342 346 349 351 352 352 350 348 345 346 349 346 342 345 342 338 342 341 338 332 326 325 320 320 316 311 311 309 323
342 347 345 317 314 315 322 323 322 326 337 339 345 346 348 349 350 349 350 348 349 347 347 347 343 345 341 338 340 333 330 325 325 324 323 314 309 313
333 327 319 316 316 325 320 320 321 327 330 333 337 340 344 347 349 343 342 343 350 352 353 352 352 349 347 345 340 340 334 329 330 328 325 323 322 319
327 326 323 320 319 324 326 337 341 344 341 339 339 342 344 344 345 346 345 345 342 342 355 358 355 353 349 351 350 344 342 335 334 333 330 327 327 327
313 322 324 326 328 332 338 344 348 347 343 342 342 343 343 343 343 345 346 345 342 341 340 351 359 359 358 353 347 350 346 343 339 337 331 329 327 328
314 315 319 321 325 329 333 337 342 344 346 346 344 343 343 343 344 346 347 345 343 342 340 342 347 350 350 355 350 351 348 349 346 340 336 332 331 330
309 315 317 322 328 332 335 337 338 342 346 346 346 347 348 347 343 344 344 344 344 344 344 345 343 344 341 338 345 336 353 347 343 342 340 336 335 335
311 316 320 327 327 329 333 335 337 340 343 346 345 344 340 337 336 337 335 332 337 344 345 344 342 341 341 340 340 348 323 353 347 347 343 343 340 331
320 320 321 322 323 323 323 328 332 336 341 344 343 344 341 336 335 335 334 321 325 335 340 341 344 334 344 350 343 343 346 319 338 349 346 342 339 336
315 314 315 316 315 314 316 321 323 329 333 336 342 343 341 339 336 334 332 330 331 336 342 342 347 347 344 341 340 339 341 346 326 320 323 334 338 335
310 312 311 310 310 311 312 315 317 320 323 327 330 334 337 334 334 338 338 338 338 343 344 343 344 342 342 341 337 342 341 342 342 339 335 324 320 323

GFSNE_sfc_thetae_108.txt.gz
Theta_e
346 344 348 348 348 347 341 340 335 330 331 338 340 347 352 352 352 353 355 350 349 341 338 337 336 337 336 335 338 341 343 346 351 348 345 344 343 347
348 346 345 348 348 347 348 344 342 336 332 338 342 344 347 350 352 352 355 350 345 340 336 335 335 336 335 334 339 340 341 344 346 344 343 342 341 346
347 346 345 348 348 345 347 345 342 342 336 338 342 345 348 349 351 351 357 357 348 339 335 335 333 334 333 333 338 337 341 344 342 341 342 340 340 344
346 347 347 350 346 347 347 346 345 345 343 338 342 345 346 347 348 348 347 351 348 339 334 334 331 331 330 331 333 333 336 337 338 338 338 338 339 341
346 347 348 346 344 344 345 344 343 347 346 343 341 345 345 347 346 342 341 345 344 337 332 332 331 330 329 328 328 328 329 331 331 331 331 333 336 339
349 350 350 349 345 344 345 346 344 343 343 342 342 342 343 342 342 339 340 341 342 344 340 335 333 332 330 328 328 328 324 324 324 326 326 327 329 333
350 350 351 351 348 347 352 348 347 345 343 343 340 338 338 337 338 341 337 339 341 340 340 335 333 331 329 330 332 333 327 324 322 323 323 322 324 327
347 347 348 349 348 343 341 342 345 344 341 337 335 334 333 335 338 339 337 335 335 346 343 343 337 337 335 331 331 330 328 325 323 322 322 320 321 323
348 347 348 352 346 349 343 338 335 335 338 339 335 333 333 336 337 335 335 336 337 343 345 345 342 342 344 338 329 328 326 325 323 322 321 321 320 319
343 347 348 349 347 346 347 347 349 349 341 339 339 341 339 341 338 339 338 340 343 345 349 339 339 338 343 339 330 328 325 323 322 321 321 318 316 315
345 345 346 347 340 336 346 346 346 348 345 334 334 333 333 333 337 343 341 339 339 337 339 338 337 335 339 336 330 327 323 320 319 319 319 318 314 312
346 347 333 336 323 321 337 344 344 345 346 349 350 341 335 340 332 342 345 339 338 336 339 338 334 335 332 338 329 326 324 318 316 315 315 315 311 323
343 345 343 318 315 315 317 329 333 334 335 337 341 346 348 348 346 343 343 344 342 342 345 340 335 334 335 336 333 326 325 321 322 318 310 310 310 320
333 335 331 314 311 313 320 325 320 322 331 334 336 337 340 344 348 350 350 347 349 349 350 342 338 339 336 334 336 331 324 325 323 325 324 315 309 310
329 326 316 312 311 317 319 321 321 330 331 332 337 339 341 343 343 343 345 348 349 348 349 347 344 344 341 341 338 337 332 328 326 326 325 324 324 320
323 323 321 317 316 319 320 329 334 337 338 338 339 341 342 341 341 342 342 344 342 342 345 348 348 347 344 345 345 344 339 337 328 329 328 327 326 327
312 315 317 317 319 321 325 331 335 340 342 343 342 341 341 342 341 343 341 341 340 340 342 344 347 351 351 349 343 345 346 342 337 333 329 328 328 328
314 313 314 314 315 319 324 329 333 334 338 341 343 342 342 342 342 343 342 342 341 342 343 344 341 339 346 351 347 349 346 347 344 336 333 332 331 331
311 311 312 314 318 327 325 326 329 333 335 338 340 342 343 344 341 342 343 343 342 343 344 344 341 336 335 334 343 335 350 348 346 339 336 335 338 339
310 311 313 319 317 318 319 317 319 320 325 329 333 339 341 342 341 340 341 340 338 338 337 338 340 340 338 337 338 343 321 351 347 344 340 340 338 326
312 313 316 314 313 315 314 314 316 318 316 321 326 332 336 338 339 339 338 323 326 331 330 330 333 329 342 341 338 340 344 317 338 349 343 341 338 338
313 312 311 311 312 311 310 310 310 311 314 315 317 322 328 332 334 338 337 334 333 330 331 332 333 336 340 338 338 339 340 344 320 319 320 330 339 334
309 308 308 305 307 307 307 306 308 309 309 310 312 315 320 320 325 329 334 335 336 336 336 336 337 337 337 341 336 340 338 340 340 338 340 321 320 319

GFSNE_sfc_thetae_111.txt.gz
Theta_e
345 343 344 346 346 345 341 339 334 328 330 336 339 345 346 350 351 351 350 348 347 340 338 337 336 337 336 337 340 342 344 348 350 348 346 343 344 347
345 344 343 346 345 345 345 342 339 335 331 336 340 343 346 350 351 349 352 350 344 338 336 335 335 336 335 335 340 340 342 345 346 344 343 341 342 346
345 345 344 344 346 343 345 343 341 340 336 339 340 343 344 346 346 347 348 347 344 338 336 335 333 333 334 333 337 337 341 342 342 341 341 341 340 343
343 343 343 348 343 343 344 343 343 342 340 335 340 341 344 345 345 342 343 347 342 339 334 333 331 331 331 331 332 332 338 337 337 337 338 338 338 340
345 343 344 344 342 341 341 341 341 344 342 340 339 342 344 344 342 342 341 340 345 338 332 332 332 330 329 328 329 327 329 330 330 331 332 333 335 338
347 347 347 347 345 344 343 343 343 341 340 339 339 340 340 339 340 337 337 336 339 344 340 336 334 333 330 328 328 329 325 323 323 325 325 326 329 333
348 349 349 349 346 344 348 347 345 343 341 339 338 336 335 334 332 336 335 335 337 339 342 338 335 332 331 330 331 333 327 324 321 321 322 321 322 326
345 346 347 346 345 340 339 339 345 344 341 338 336 334 333 333 334 336 333 332 331 341 340 340 340 341 338 331 332 330 328 325 323 321 320 320 320 321
345 346 347 351 344 347 342 336 336 334 339 342 337 335 333 335 335 333 333 333 333 339 342 341 339 339 343 340 330 327 326 325 323 322 321 320 319 318
340 342 344 346 346 346 346 344 344 346 343 338 338 340 338 340 338 338 337 336 338 341 345 337 335 336 338 341 332 328 324 323 323 321 320 317 316 315
342 343 344 344 334 329 340 342 343 345 341 334 332 331 331 331 334 339 337 335 339 336 340 337 336 334 334 338 335 327 323 320 319 320 320 318 314 312
341 343 325 328 318 318 332 336 337 340 341 338 340 340 337 339 331 339 342 339 339 333 339 338 334 332 331 335 333 327 324 318 316 315 317 316 313 325
340 341 339 320 316 314 315 332 334 336 336 337 338 338 340 343 346 341 342 344 341 340 344 340 334 333 332 333 334 330 326 322 322 317 311 311 310 319
326 331 329 312 310 310 314 320 320 321 331 334 337 336 337 339 343 346 348 345 348 348 349 344 338 337 333 331 333 333 326 325 324 325 324 315 309 310
323 323 314 311 311 315 318 317 318 326 330 331 333 335 339 341 341 340 341 347 348 348 349 348 345 346 338 339 338 334 333 328 325 326 326 325 324 320
318 316 317 315 314 316 318 324 328 330 331 333 335 339 342 339 338 340 338 340 338 340 343 346 346 345 342 341 340 339 338 336 328 327 328 328 328 328
310 315 315 315 315 315 318 323 327 329 331 334 337 338 340 341 341 342 340 339 337 338 339 343 341 344 344 343 340 341 341 340 342 332 328 328 328 328
310 312 312 313 314 315 318 322 324 326 326 325 328 332 334 338 340 342 342 340 338 339 339 341 342 336 338 344 342 343 343 343 345 339 333 332 333 331
306 307 308 312 313 317 317 315 313 315 316 319 323 323 327 333 336 340 340 340 339 340 341 344 343 335 335 334 342 332 346 347 345 342 337 335 338 342
303 306 309 311 315 314 311 310 310 311 313 314 314 319 323 325 328 333 335 336 336 336 339 340 338 338 337 335 336 340 318 347 344 345 343 339 338 327
308 309 310 315 315 312 310 311 311 310 311 312 313 312 313 317 321 324 328 320 324 336 336 335 336 327 334 337 334 335 339 318 332 347 346 341 337 334
311 312 310 310 309 308 309 308 308 307 308 308 308 310 311 312 313 316 317 319 324 330 334 336 337 334 329 330 329 332 334 338 329 318 321 330 338 334
309 308 307 307 307 307 304 306 306 306 306 305 305 306 308 309 310 309 310 314 318 322 327 329 334 336 335 335 330 334 336 338 341 341 338 320 320 320

GFSNE_sfc_thetae_114.txt.gz
Theta_e
352 351 351 352 352 350 348 347 344 339 343 345 348 356 357 357 356 357 358 345 344 340 339 336 337 337 337 340 341 342 345 351 349 348 345 344 347 345
351 352 351 353 353 351 350 348 347 343 340 344 349 352 355 355 355 356 353 347 341 339 337 335 335 336 335 338 341 341 342 345 346 344 343 341 343 345
352 352 351 351 353 353 352 350 350 348 345 348 348 353 355 357 357 356 354 355 351 339 336 335 333 334 334 334 337 337 341 342 342 342 341 340 340 343
350 350 350 351 352 352 350 351 351 350 348 345 349 350 354 356 356 356 350 348 351 341 335 334 333 332 331 331 332 333 338 337 338 338 339 338 339 340
350 350 350 351 351 349 349 349 349 349 350 348 347 350 352 352 352 352 351 351 348 339 334 333 333 332 330 329 329 327 331 330 331 331 332 334 335 337
351 352 351 352 352 353 351 352 352 350 349 348 348 348 349 350 347 344 346 348 347 349 345 339 336 334 331 328 328 329 326 324 324 325 327 327 329 331
353 353 354 352 346 348 353 356 353 352 350 349 348 346 345 344 344 344 344 345 349 349 352 352 351 352 348 333 335 333 327 325 322 322 323 322 323 325
350 352 354 348 348 339 338 338 348 353 352 348 347 345 347 344 344 344 344 344 344 352 350 351 353 352 352 350 336 330 327 325 324 321 321 321 321 321
351 351 350 351 349 353 342 336 337 334 340 354 349 348 346 348 347 347 346 344 345 349 351 350 353 350 353 353 332 328 326 325 323 322 321 320 320 319
346 346 347 349 349 347 350 350 351 352 351 346 348 351 350 351 348 350 348 347 348 350 352 346 351 348 352 352 336 329 324 323 323 321 320 318 315 314
347 348 348 348 325 325 345 347 348 350 342 333 333 332 332 331 336 346 346 345 345 348 351 349 349 347 348 349 351 329 323 320 319 320 320 317 314 312
345 343 324 329 318 317 338 342 342 345 347 348 349 346 338 344 331 345 349 345 346 345 352 347 347 345 344 350 349 348 343 319 316 315 317 316 312 325
337 338 339 323 318 315 314 329 336 336 337 341 343 345 347 348 349 350 349 348 346 346 351 350 349 346 344 345 348 349 346 341 335 326 311 311 311 321
328 331 332 312 308 310 315 317 316 318 330 334 336 339 340 342 345 348 353 352 352 352 356 352 348 347 346 345 344 351 346 344 341 341 339 321 309 311
325 321 313 311 312 317 316 315 317 333 334 334 335 337 340 343 347 349 351 352 353 354 353 355 350 351 350 346 345 348 345 348 343 341 342 337 329 321
317 318 317 315 314 317 322 327 332 334 335 334 334 338 342 343 344 346 345 346 344 345 353 354 355 352 347 348 348 346 348 344 348 342 341 340 338 334
306 319 320 319 319 320 323 327 329 332 328 326 326 328 330 334 335 340 342 342 340 342 344 348 354 352 351 350 345 347 347 348 350 350 339 340 341 338
312 315 313 315 315 317 321 325 326 320 320 319 323 323 321 324 328 333 336 339 338 338 339 342 345 347 349 349 343 346 348 349 351 352 350 341 343 347
310 312 312 314 315 317 322 321 317 316 317 317 314 314 317 319 322 324 328 329 331 335 338 341 340 342 335 331 344 329 347 349 352 350 349 342 343 349
311 312 313 315 316 318 317 315 315 314 313 313 313 316 315 314 314 315 318 321 323 322 324 335 338 339 335 334 335 342 317 343 345 346 345 350 347 332
309 312 316 314 312 311 311 311 311 311 310 309 310 310 311 313 312 313 315 309 310 318 317 322 329 325 338 338 331 333 340 318 330 343 344 344 344 346
307 310 311 309 309 308 308 308 307 308 309 309 308 307 307 309 308 310 311 309 309 311 313 317 324 329 330 331 329 331 334 339 333 319 318 327 339 338
302 304 308 308 306 306 305 305 305 304 305 306 306 306 306 305 306 305 306 307 308 308 310 311 316 322 324 326 324 328 332 334 339 341 344 325 318 317

GFSNE_sfc_thetae_117.txt.gz
Theta_e
363 362 360 361 362 360 359 357 350 341 343 352 351 361 360 360 358 361 357 343 344 341 339 337 338 338 340 342 342 344 348 351 350 348 345 344 348 347
359 363 363 363 362 362 361 359 358 349 342 353 352 357 363 360 359 363 358 349 343 340 338 337 337 337 337 340 342 343 345 348 347 345 343 342 346 345
361 361 361 362 359 360 361 360 357 355 345 348 356 359 362 364 364 363 357 353 352 341 338 337 336 335 335 335 338 338 342 344 343 342 342 341 343 343
358 360 359 356 361 362 357 360 359 361 353 353 358 356 360 364 363 362 356 353 357 341 338 337 336 334 333 334 333 335 337 338 339 339 339 339 339 341
359 358 358 359 360 357 359 357 358 359 359 354 354 358 359 360 359 361 360 362 355 344 337 336 334 333 332 330 330 331 330 331 331 332 333 334 336 338
360 359 358 359 359 361 360 362 361 360 361 357 354 353 356 361 358 354 352 357 357 358 348 343 340 340 333 329 329 329 326 325 325 326 327 328 330 332
358 360 360 356 348 350 361 365 361 354 351 350 349 351 350 352 353 353 352 353 358 360 356 354 354 356 353 336 340 333 327 326 324 322 323 323 324 326
360 361 362 353 352 339 338 338 349 360 361 351 351 351 356 355 352 351 349 346 341 353 357 350 354 353 354 357 342 335 327 325 325 323 321 321 322 322
362 362 361 356 353 360 346 337 338 335 339 360 357 357 356 358 359 356 356 354 352 355 357 351 353 351 355 359 338 331 327 325 323 323 322 321 320 320
358 358 358 359 355 351 358 359 359 360 360 356 359 360 361 362 362 360 359 358 357 357 363 350 354 353 357 358 341 332 326 323 322 321 321 319 317 315
353 353 353 357 323 323 352 356 357 358 344 336 334 332 333 333 338 352 352 351 349 351 359 354 354 354 355 356 357 332 325 321 319 320 320 318 315 313
344 339 325 329 320 318 338 346 350 354 354 355 356 351 342 354 332 352 354 350 349 347 357 354 353 354 348 355 357 359 357 321 316 316 316 316 313 331
330 331 336 317 312 312 315 334 334 331 333 340 346 349 352 353 354 358 361 355 349 348 352 356 353 352 350 351 354 357 358 355 355 341 311 312 310 323
328 329 329 311 309 310 318 316 316 320 334 334 335 337 339 342 345 350 354 355 356 357 359 362 353 352 350 349 348 354 356 358 358 356 356 334 310 311
326 319 313 310 312 319 317 316 320 337 337 335 335 337 341 343 348 349 351 355 357 358 356 358 358 354 352 348 346 349 348 354 357 356 356 355 354 345
314 322 319 316 313 318 324 329 334 335 334 333 331 332 335 335 335 338 338 343 343 345 352 357 360 359 352 353 349 347 350 347 353 355 356 356 355 355
311 322 320 320 321 323 325 328 331 330 326 326 326 327 326 326 327 330 331 333 336 338 342 347 351 350 351 350 348 351 349 349 352 355 358 353 355 355
314 316 316 317 318 319 321 323 327 326 326 325 325 322 322 323 322 324 326 327 327 328 332 335 334 337 344 348 344 350 352 354 352 354 356 350 349 354
313 314 315 316 316 318 320 321 323 324 325 323 322 321 322 322 319 320 321 322 322 322 322 323 325 327 331 330 342 327 344 344 346 345 347 347 348 350
310 311 314 316 315 315 315 315 315 315 316 319 318 318 319 319 319 319 319 319 319 318 317 321 321 323 325 322 324 333 322 343 341 341 341 346 346 332
308 309 311 313 313 314 314 314 313 313 312 314 317 316 313 310 312 314 316 309 311 316 316 316 318 316 322 326 324 325 330 319 329 339 342 340 339 341
303 303 303 303 306 311 312 312 312 312 312 312 312 312 312 311 308 308 311 311 311 313 314 316 319 318 318 317 317 322 326 330 327 321 319 325 340 335
300 301 301 303 303 303 304 304 305 306 307 307 308 308 307 306 306 305 305 305 307 309 310 311 314 315 314 315 314 316 322 327 328 329 332 324 319 317

GFSNE_sfc_thetae_120.txt.gz
Theta_e
363 364 359 362 361 360 358 354 349 342 343 354 352 360 356 354 357 362 363 343 346 343 341 340 339 340 343 343 343 346 355 352 350 348 346 347 347 348
355 363 362 360 359 358 357 355 353 348 342 347 351 356 361 358 360 363 361 353 346 343 341 339 338 338 338 341 343 344 349 349 347 345 344 344 346 347
362 361 361 365 355 356 356 355 353 351 345 346 350 358 364 361 362 365 358 355 352 343 341 340 338 337 338 338 340 341 344 347 344 344 342 342 344 345
358 359 359 355 361 362 355 360 358 359 352 353 357 354 358 364 366 366 360 352 357 343 341 340 338 337 336 336 337 338 337 340 340 340 340 340 341 343
357 358 358 360 360 358 360 357 354 356 357 352 351 354 355 358 360 362 361 362 352 344 339 337 336 335 333 332 332 331 330 331 332 333 334 335 337 339
357 358 358 358 359 359 358 360 359 356 356 352 349 349 350 358 359 352 350 352 351 353 350 345 348 340 336 331 330 329 325 324 325 326 328 329 331 333
356 358 358 356 350 351 354 360 362 355 348 346 345 345 346 351 353 351 349 348 353 349 350 351 347 348 350 336 343 335 328 326 324 323 323 324 324 326
358 359 361 355 353 342 341 341 349 363 359 352 349 349 357 355 352 350 352 348 345 353 355 351 353 349 348 351 344 338 329 325 326 324 322 321 322 323
362 360 357 352 354 359 345 340 340 337 339 361 357 356 357 359 362 360 362 357 355 357 359 352 356 351 352 355 341 335 328 325 323 324 324 322 321 321
361 361 361 361 344 350 360 360 360 360 362 359 362 361 365 366 365 364 362 363 361 361 367 351 356 354 358 358 341 335 329 325 322 321 321 320 318 316
351 345 353 342 325 324 350 357 359 360 346 338 335 333 334 334 340 354 353 355 350 352 358 357 355 356 357 356 358 335 328 323 320 320 319 319 316 314
347 345 325 326 317 318 336 345 348 352 346 349 351 351 345 356 335 359 360 353 354 349 359 356 361 354 350 357 358 360 360 323 319 317 317 316 313 334
333 337 335 316 312 312 314 337 333 329 333 338 343 346 349 351 351 361 363 355 350 349 354 357 355 360 355 350 355 356 358 356 352 341 314 313 310 323
331 330 329 311 309 311 319 317 317 321 337 338 338 339 341 343 345 349 354 354 355 355 360 361 355 353 353 349 348 354 355 357 357 360 359 340 311 311
323 318 313 310 312 318 316 318 319 335 335 334 334 337 337 338 344 347 348 354 355 354 352 358 357 354 355 354 350 349 348 354 355 355 357 357 359 349
319 325 322 318 316 322 324 329 333 333 331 328 329 330 332 332 330 332 332 333 332 334 348 353 357 355 347 346 347 344 349 348 354 353 355 355 358 360
309 321 320 320 320 321 323 325 326 329 330 329 328 328 328 329 329 331 329 329 327 328 329 333 345 347 343 346 341 347 348 349 354 358 359 356 356 354
313 316 317 318 319 319 320 321 324 325 328 327 326 326 325 325 326 326 326 325 324 325 326 328 327 326 328 335 335 337 342 346 348 349 352 351 347 352
313 314 316 317 318 319 319 319 319 321 324 323 323 324 323 324 323 323 323 323 322 323 324 324 323 322 319 319 327 321 325 327 329 334 341 342 340 343
311 312 312 313 315 316 317 317 317 317 317 318 318 320 322 321 319 319 320 320 320 320 320 321 322 321 319 317 317 322 314 330 330 330 332 336 338 328
307 307 308 309 309 311 314 315 315 315 314 315 316 317 316 315 316 315 316 310 312 317 317 317 320 316 322 323 318 318 322 314 320 327 331 329 329 333
305 305 306 306 307 308 308 308 309 308 309 309 309 310 310 310 309 310 310 310 311 312 313 315 319 318 317 315 313 317 317 321 319 317 316 319 329 325
303 303 303 304 305 306 305 304 303 302 303 304 304 305 307 306 306 306 305 305 305 306 307 308 311 314 313 313 312 313 317 317 316 317 321 318 316 317